N4ASP-13 Weather Reports


time (UTC)temp
F
wind
direction
speed
knots
gust
knots
rain 1hr
in
rain 24hr
in
rain mn
in
humidity
%
barometer
mb
20260906083310 73 304 0.0 0.0 0.00 0.00 0.00 84 1013.8
20260906083209 73 279 0.0 0.0 0.00 0.00 0.00 84 1013.9
20260906083103 73 299 0.0 0.0 0.00 0.00 0.00 84 1013.9
20260906083006 73 307 0.0 0.0 0.00 0.00 0.00 84 1013.8
20260906082904 73 298 0.0 0.0 0.00 0.00 0.00 84 1013.8
20260906082803 73 301 0.0 0.0 0.00 0.00 0.00 84 1013.8
20260906082703 73 304 0.0 0.0 0.00 0.00 0.00 84 1013.9
20260906082558 72 313 0.0 0.0 0.00 0.00 0.00 84 1013.9
20260906082500 73 296 0.0 0.0 0.00 0.00 0.00 84 1013.8
20260906082359 73 292 0.0 0.0 0.00 0.00 0.00 84 1013.9
20260906082300 73 279 0.0 0.0 0.00 0.00 0.00 84 1013.9
20260906082158 73 284 0.0 0.0 0.00 0.00 0.00 84 1013.8
20260906082051 73 284 0.0 0.0 0.00 0.00 0.00 84 1013.9
20260906081952 73 305 0.0 0.0 0.00 0.00 0.00 84 1013.9
20260906081851 73 306 0.0 0.0 0.00 0.00 0.00 84 1013.9
20260906081749 73 306 0.0 0.0 0.00 0.00 0.00 84 1013.8
20260906081648 73 306 0.0 0.0 0.00 0.00 0.00 84 1013.8
20260906081547 73 306 0.0 0.0 0.00 0.00 0.00 83 1013.9
20260906081446 73 307 0.0 0.0 0.00 0.00 0.00 83 1013.9
20260906081346 73 307 0.0 0.0 0.00 0.00 0.00 83 1013.9
20260906081243 73 307 0.0 0.0 0.00 0.00 0.00 83 1013.9
20260906081142 73 308 0.0 0.0 0.00 0.00 0.00 83 1013.9
20260906081038 73 307 0.0 0.0 0.00 0.00 0.00 83 1013.9
20260906080934 73 307 0.0 0.0 0.00 0.00 0.00 83 1013.9
20260906080835 73 308 0.0 0.0 0.00 0.00 0.00 82 1013.9
20260906080733 73 303 0.0 0.0 0.00 0.00 0.00 82 1013.9
20260906080634 74 312 0.0 0.0 0.00 0.00 0.00 82 1013.8
20260906080527 74 315 0.0 0.0 0.00 0.00 0.00 82 1013.8
20260906080427 74 327 0.0 0.0 0.00 0.00 0.00 82 1013.8
20260906080327 74 329 0.0 0.0 0.00 0.00 0.00 81 1013.8
20260906080225 74 333 0.0 0.0 0.00 0.00 0.00 81 1013.8
20260906080124 74 338 0.0 0.0 0.00 0.00 0.00 81 1013.8
20260906080017 74 330 0.0 0.0 0.00 0.00 0.00 81 1013.8
20260906075918 74 330 0.0 0.0 0.00 0.00 0.00 80 1013.8
20260906075816 74 324 0.0 0.0 0.00 0.00 0.00 80 1013.8
20260906075716 74 325 0.0 0.0 0.00 0.00 0.00 80 1013.8
20260906075618 74 313 0.0 0.0 0.00 0.00 0.00 80 1013.8
20260906075511 74 311 0.0 0.0 0.00 0.00 0.00 80 1013.8
20260906075410 74 311 0.0 0.0 0.00 0.00 0.00 80 1013.8
20260906075309 74 313 0.0 0.0 0.00 0.00 0.00 80 1013.7
20260906075210 74 313 0.0 0.0 0.00 0.00 0.00 80 1013.7
20260906075110 74 318 0.0 0.0 0.00 0.00 0.00 80 1013.7
20260906074959 74 318 0.0 0.0 0.00 0.00 0.00 80 1013.7
20260906074859 74 313 0.0 0.0 0.00 0.00 0.00 80 1013.7
20260906074759 74 327 0.0 0.0 0.00 0.00 0.00 80 1013.8
20260906074700 74 327 0.0 0.0 0.00 0.00 0.00 80 1013.8
20260906074600 74 322 0.0 0.0 0.00 0.00 0.00 80 1013.7
20260906074456 74 313 0.0 0.0 0.00 0.00 0.00 81 1013.8
20260906074357 74 309 0.0 0.0 0.00 0.00 0.00 81 1013.8
20260906074258 74 304 0.0 0.0 0.00 0.00 0.00 81 1013.7
20260906074158 74 307 0.0 0.0 0.00 0.00 0.00 81 1013.7
20260906074055 74 310 0.0 0.0 0.00 0.00 0.00 81 1013.7
20260906073955 74 307 0.0 0.0 0.00 0.00 0.00 81 1013.7
20260906073854 74 308 0.0 0.0 0.00 0.00 0.00 81 1013.8
20260906073755 74 304 0.0 0.0 0.00 0.00 0.00 81 1013.8
20260906073653 74 297 0.0 0.0 0.00 0.00 0.00 81 1013.7
20260906073554 74 282 0.0 0.0 0.00 0.00 0.00 81 1013.5
20260906073451 74 301 0.0 0.0 0.00 0.00 0.00 81 1013.5
20260906073352 74 293 0.0 0.0 0.00 0.00 0.00 81 1013.5
20260906073252 74 292 0.0 0.0 0.00 0.00 0.00 81 1013.5
20260906073152 74 302 0.0 0.0 0.00 0.00 0.00 81 1013.5
20260906073051 74 303 0.0 0.0 0.00 0.00 0.00 81 1013.5
20260906072951 74 301 0.0 0.0 0.00 0.00 0.00 81 1013.7
20260906072852 74 303 0.0 0.0 0.00 0.00 0.00 81 1013.5
20260906072748 74 299 0.0 0.0 0.00 0.00 0.00 82 1013.5
20260906072645 74 295 0.0 0.0 0.00 0.00 0.00 82 1013.7
20260906072546 74 294 0.0 0.0 0.00 0.00 0.00 82 1013.7
20260906072445 74 293 0.0 0.0 0.00 0.00 0.00 82 1013.5
20260906072344 74 292 0.0 0.0 0.00 0.00 0.00 82 1013.5
20260906072244 74 292 0.0 0.0 0.00 0.00 0.00 82 1013.5
20260906072142 74 232 0.0 0.0 0.00 0.00 0.00 82 1013.5
20260906072043 74 254 0.0 0.0 0.00 0.00 0.00 82 1013.4
20260906071943 74 238 0.0 0.0 0.00 0.00 0.00 82 1013.4
20260906071842 73 244 0.0 0.0 0.00 0.00 0.00 82 1013.4
20260906071742 73 259 0.0 0.0 0.00 0.00 0.00 82 1013.4
20260906071644 73 270 0.0 0.0 0.00 0.00 0.00 82 1013.4
20260906071542 73 271 0.0 0.0 0.00 0.00 0.00 83 1013.5
20260906071444 73 281 0.0 0.0 0.00 0.00 0.00 83 1013.5
20260906071340 73 278 0.0 0.0 0.00 0.00 0.00 83 1013.5
20260906071240 73 283 0.0 0.0 0.00 0.00 0.00 83 1013.5
20260906071142 73 275 0.0 0.0 0.00 0.00 0.00 83 1013.5
20260906071042 73 280 0.0 0.0 0.00 0.00 0.00 83 1013.5
20260906070942 73 288 0.0 0.0 0.00 0.00 0.00 83 1013.7
20260906070842 73 272 0.0 0.0 0.00 0.00 0.00 83 1013.5
20260906070741 73 271 0.0 0.0 0.00 0.00 0.00 83 1013.5
20260906070642 73 271 0.0 0.0 0.00 0.00 0.00 83 1013.5
20260906070540 73 270 0.0 0.0 0.00 0.00 0.00 83 1013.7
20260906070441 73 261 0.0 0.0 0.00 0.00 0.00 83 1013.7
20260906070341 73 261 0.0 0.0 0.00 0.00 0.00 83 1013.8
20260906070241 73 267 0.0 0.0 0.00 0.00 0.00 83 1013.8
20260906070140 73 272 0.0 0.0 0.00 0.00 0.00 83 1013.8
20260906070040 73 279 0.0 0.0 0.00 0.00 0.00 83 1013.8
20260906065941 73 284 0.0 0.0 0.00 0.00 0.00 83 1013.8
20260906065841 73 279 0.0 0.0 0.00 0.00 0.00 83 1013.9
20260906065740 73 282 0.0 0.0 0.00 0.00 0.00 83 1013.9
20260906065640 73 284 0.0 0.0 0.00 0.00 0.00 83 1013.9
20260906065541 73 279 0.0 0.0 0.00 0.00 0.00 83 1013.9
20260906065441 73 278 0.0 0.0 0.00 0.00 0.00 83 1013.9
20260906065340 73 277 0.0 0.0 0.00 0.00 0.00 83 1014.0
20260906065240 73 274 0.0 0.0 0.00 0.00 0.00 83 1013.9
20260906065141 73 277 0.0 0.0 0.00 0.00 0.00 83 1013.9
20260906065042 73 268 0.0 0.0 0.00 0.00 0.00 83 1014.0
20260906064934 73 267 0.0 0.0 0.00 0.00 0.00 83 1013.9
20260906064832 73 264 0.0 0.0 0.00 0.00 0.00 83 1014.0
20260906064733 73 264 0.0 0.0 0.00 0.00 0.00 83 1013.9
20260906064633 73 270 0.0 0.0 0.00 0.00 0.00 83 1014.0
20260906064533 73 270 0.0 0.0 0.00 0.00 0.00 83 1014.0
20260906064432 73 270 0.0 0.0 0.00 0.00 0.00 83 1014.0
20260906064333 73 266 0.0 0.0 0.00 0.00 0.00 83 1014.1
20260906064233 73 266 0.0 0.0 0.00 0.00 0.00 83 1014.1
20260906064133 73 265 0.0 0.0 0.00 0.00 0.00 83 1014.1
20260906064032 73 266 0.0 0.0 0.00 0.00 0.00 83 1014.2
20260906063934 73 266 0.0 0.0 0.00 0.00 0.00 83 1014.3
20260906063832 73 266 0.0 0.0 0.00 0.00 0.00 83 1014.4
20260906063732 73 266 0.0 0.0 0.00 0.00 0.00 83 1014.4
20260906063634 73 190 0.0 0.0 0.00 0.00 0.00 83 1014.4
20260906063534 73 174 0.0 0.0 0.00 0.00 0.00 83 1014.4
20260906063433 73 173 0.0 0.0 0.00 0.00 0.00 83 1014.5
20260906063333 73 172 0.0 0.0 0.00 0.00 0.00 83 1014.4
20260906063232 73 172 0.0 0.0 0.00 0.00 0.00 83 1014.5
20260906063133 73 172 0.0 0.0 0.00 0.00 0.00 83 1014.5
20260906063032 73 172 0.0 0.0 0.00 0.00 0.00 82 1014.4
20260906062932 73 170 0.0 0.0 0.00 0.00 0.00 82 1014.5
20260906062834 73 171 0.0 0.0 0.00 0.00 0.00 82 1014.5
20260906062733 73 171 0.0 0.0 0.00 0.00 0.00 82 1014.5
20260906062634 73 170 0.0 0.0 0.00 0.00 0.00 82 1014.5
20260906062532 73 168 0.0 0.0 0.00 0.00 0.00 82 1014.5
20260906062433 73 165 0.0 0.0 0.00 0.00 0.00 82 1014.5
20260906062332 73 163 0.0 0.0 0.00 0.00 0.00 82 1014.5
20260906062233 73 161 0.0 0.0 0.00 0.00 0.00 82 1014.5
20260906062133 73 160 0.0 0.0 0.00 0.00 0.00 82 1014.5
20260906062032 73 166 0.0 0.0 0.00 0.00 0.00 82 1014.5
20260906061934 73 167 0.0 0.0 0.00 0.00 0.00 82 1014.5
20260906061833 73 167 0.0 0.0 0.00 0.00 0.00 81 1014.5
20260906061733 73 167 0.0 0.0 0.00 0.00 0.00 81 1014.5
20260906061629 73 161 0.0 0.0 0.00 0.00 0.00 81 1014.5
20260906061529 73 136 0.0 0.0 0.00 0.00 0.00 81 1014.5
20260906061429 73 123 0.0 0.0 0.00 0.00 0.00 81 1014.6
20260906061328 73 210 0.0 0.0 0.00 0.00 0.00 81 1014.6
20260906061228 73 215 0.0 0.0 0.00 0.00 0.00 81 1014.7
20260906061128 73 215 0.0 0.0 0.00 0.00 0.00 81 1014.6
20260906061029 73 215 0.0 0.0 0.00 0.00 0.00 81 1014.6
20260906060928 73 215 0.0 0.0 0.00 0.00 0.00 81 1014.6
20260906060829 73 215 0.0 0.0 0.00 0.00 0.00 81 1014.6
20260906060728 74 215 0.0 0.0 0.00 0.00 0.00 81 1014.5
20260906060628 74 217 0.0 0.0 0.00 0.00 0.00 81 1014.5
20260906060528 74 217 0.0 0.0 0.00 0.00 0.00 81 1014.5
20260906060428 74 217 0.0 0.0 0.00 0.00 0.00 81 1014.6
20260906060330 74 216 0.0 0.0 0.00 0.00 0.00 81 1014.5
20260906060228 74 217 0.0 0.0 0.00 0.00 0.00 81 1014.5
20260906060128 74 216 0.0 0.0 0.00 0.00 0.00 81 1014.5
20260906060028 74 217 0.0 0.0 0.00 0.00 0.00 81 1014.6
20260906055929 74 216 0.0 0.0 0.00 0.00 0.00 80 1014.5
20260906055828 74 225 0.0 0.0 0.00 0.00 0.00 80 1014.5
20260906055728 74 226 0.0 0.0 0.00 0.00 0.00 80 1014.6
20260906055628 74 236 0.0 0.0 0.00 0.00 0.00 80 1014.6
20260906055529 74 236 0.0 0.0 0.00 0.00 0.00 80 1014.6
20260906055428 74 237 0.0 0.0 0.00 0.00 0.00 80 1014.6
20260906055329 74 237 0.0 0.0 0.00 0.00 0.00 80 1014.6
20260906055228 74 236 0.0 0.0 0.00 0.00 0.00 80 1014.6
20260906055130 74 236 0.0 0.0 0.00 0.00 0.00 80 1014.6
20260906055029 74 236 0.0 0.0 0.00 0.00 0.00 80 1014.6
20260906054929 74 236 0.0 0.0 0.00 0.00 0.00 80 1014.6
20260906054829 74 236 0.0 0.0 0.00 0.00 0.00 80 1014.6
20260906054729 74 237 0.0 0.0 0.00 0.00 0.00 80 1014.6
20260906054628 74 239 0.0 0.0 0.00 0.00 0.00 80 1014.6
20260906054528 74 240 0.0 0.0 0.00 0.00 0.00 80 1014.6
20260906054429 74 240 0.0 0.0 0.00 0.00 0.00 80 1014.6
20260906054326 74 170 0.0 0.0 0.00 0.00 0.00 79 1014.5
20260906054224 74 169 0.0 0.0 0.00 0.00 0.00 79 1014.6
20260906054124 74 170 0.0 0.0 0.00 0.00 0.00 79 1014.6
20260906054025 74 171 0.0 0.0 0.00 0.00 0.00 79 1014.6
20260906053925 74 171 0.0 0.0 0.00 0.00 0.00 79 1014.6
20260906053825 74 182 0.0 0.0 0.00 0.00 0.00 79 1014.6
20260906053724 74 182 0.0 0.0 0.00 0.00 0.00 79 1014.6
20260906053626 74 182 0.0 0.0 0.00 0.00 0.00 79 1014.6
20260906053525 74 188 0.0 0.0 0.00 0.00 0.00 79 1014.7
20260906053425 74 188 0.0 0.0 0.00 0.00 0.00 79 1014.6
20260906053326 74 188 0.0 0.0 0.00 0.00 0.00 79 1014.7
20260906053224 74 189 0.0 0.0 0.00 0.00 0.00 79 1014.6
20260906053125 74 189 0.0 0.0 0.00 0.00 0.00 79 1014.6
20260906053025 74 189 0.0 0.0 0.00 0.00 0.00 79 1014.6
20260906052924 74 190 0.0 0.0 0.00 0.00 0.00 79 1014.7
20260906052825 74 191 0.0 0.0 0.00 0.00 0.00 79 1014.7
20260906052725 74 191 0.0 0.0 0.00 0.00 0.00 79 1014.6
20260906052624 74 191 0.0 0.0 0.00 0.00 0.00 79 1014.6
20260906052524 74 191 0.0 0.0 0.00 0.00 0.00 79 1014.7
20260906052424 74 191 0.0 0.0 0.00 0.00 0.00 79 1014.6
20260906052325 74 191 0.0 0.0 0.00 0.00 0.00 79 1014.7
20260906052226 74 191 0.0 0.0 0.00 0.00 0.00 79 1014.6
20260906052124 74 191 0.0 0.0 0.00 0.00 0.00 79 1014.6
20260906052026 74 191 0.0 0.0 0.00 0.00 0.00 79 1014.6
20260906051924 74 191 0.0 0.0 0.00 0.00 0.00 79 1014.6
20260906051825 74 191 0.0 0.0 0.00 0.00 0.00 79 1014.7
20260906051724 74 191 0.0 0.0 0.00 0.00 0.00 79 1014.7
20260906051624 74 183 0.0 0.0 0.00 0.00 0.00 80 1014.7
20260906051526 74 182 0.0 0.0 0.00 0.00 0.00 80 1014.7
20260906051424 74 182 0.0 0.0 0.00 0.00 0.00 80 1014.8
20260906051325 74 182 0.0 0.0 0.00 0.00 0.00 80 1014.8
20260906051225 74 182 0.0 0.0 0.00 0.00 0.00 80 1014.8
20260906051126 74 182 0.0 0.0 0.00 0.00 0.00 80 1014.8
20260906051020 74 182 0.0 0.0 0.00 0.00 0.00 79 1014.8
20260906050918 74 182 0.0 0.0 0.00 0.00 0.00 79 1014.8
20260906050820 74 217 0.0 0.0 0.00 0.00 0.00 79 1014.8
20260906050719 74 244 0.0 0.0 0.00 0.00 0.00 79 1014.7
20260906050618 74 245 0.0 0.0 0.00 0.00 0.00 79 1014.8
20260906050517 74 245 0.0 0.0 0.00 0.00 0.00 79 1014.8
20260906050416 74 246 0.0 0.0 0.00 0.00 0.00 79 1014.8
20260906050314 74 333 0.0 0.0 0.00 0.00 0.00 80 1014.8
20260906050213 74 333 0.0 0.0 0.00 0.00 0.00 79 1014.8
20260906050111 74 333 0.0 0.0 0.00 0.00 0.00 79 1014.9
20260906050002 74 333 0.0 0.0 0.00 0.00 0.00 79 1014.9
20260906045900 74 333 0.0 0.0 0.00 0.00 0.00 79 1015.0
20260906045800 74 333 0.0 0.0 0.00 0.00 0.00 79 1014.9
20260906045700 74 332 0.0 0.0 0.00 0.00 0.00 79 1014.9
20260906045600 74 332 0.0 0.0 0.00 0.00 0.00 79 1014.8
20260906045500 74 332 0.0 0.0 0.00 0.00 0.00 79 1014.9
20260906045400 74 332 0.0 0.0 0.00 0.00 0.00 79 1014.8
20260906045258 74 332 0.0 0.0 0.00 0.00 0.00 79 1014.8
20260906045157 74 332 0.0 0.0 0.00 0.00 0.00 79 1014.9
20260906045055 74 332 0.0 0.0 0.00 0.00 0.00 79 1014.9
20260906044956 74 332 0.0 0.0 0.00 0.00 0.00 79 1014.8
20260906044853 74 332 0.0 0.0 0.00 0.00 0.00 79 1015.0
20260906044752 74 332 0.0 0.0 0.00 0.00 0.00 79 1014.9
20260906044651 74 332 0.0 0.0 0.00 0.00 0.00 80 1014.9
20260906044549 74 332 0.0 0.0 0.00 0.00 0.00 80 1014.9
20260906044442 74 332 0.0 0.0 0.00 0.00 0.00 80 1015.0
20260906044342 74 332 0.0 0.0 0.00 0.00 0.00 80 1014.9
20260906044243 74 333 0.0 0.0 0.00 0.00 0.00 80 1015.0
20260906044141 74 333 0.0 0.0 0.00 0.00 0.00 80 1014.9
20260906044038 74 333 0.0 0.0 0.00 0.00 0.00 80 1014.9
20260906043936 74 332 0.0 0.0 0.00 0.00 0.00 80 1014.9
20260906043832 74 332 0.0 0.0 0.00 0.00 0.00 80 1014.9
20260906043732 74 332 0.0 0.0 0.00 0.00 0.00 80 1015.0
20260906043634 74 332 0.0 0.0 0.00 0.00 0.00 80 1015.0
20260906043533 74 332 0.0 0.0 0.00 0.00 0.00 80 1015.0
20260906043433 74 333 0.0 0.0 0.00 0.00 0.00 80 1015.0
20260906043331 74 333 0.0 0.0 0.00 0.00 0.00 80 1015.0
20260906043230 74 332 0.0 0.0 0.00 0.00 0.00 81 1015.0
20260906043130 74 344 0.0 0.0 0.00 0.00 0.00 81 1015.1
20260906043027 74 344 0.0 0.0 0.00 0.00 0.00 80 1015.1
20260906042922 74 344 0.0 0.0 0.00 0.00 0.00 81 1015.1
20260906042820 74 344 0.0 0.0 0.00 0.00 0.00 81 1015.1
20260906042720 74 344 0.0 0.0 0.00 0.00 0.00 81 1015.3
20260906042619 74 344 0.0 0.0 0.00 0.00 0.00 81 1015.3
20260906042516 74 344 0.0 0.0 0.00 0.00 0.00 81 1015.1
20260906042410 74 344 0.0 0.0 0.00 0.00 0.00 81 1015.1
20260906042310 74 344 0.0 0.0 0.00 0.00 0.00 81 1015.1
20260906042211 74 344 0.0 0.0 0.00 0.00 0.00 81 1015.0
20260906042111 74 343 0.0 0.0 0.00 0.00 0.00 81 1015.1
20260906042009 74 344 0.0 0.0 0.00 0.00 0.00 81 1015.1
20260906041902 74 233 0.0 0.0 0.00 0.00 0.00 82 1015.1
20260906041802 74 229 0.0 0.0 0.00 0.00 0.00 82 1015.1
20260906041703 74 229 0.0 0.0 0.00 0.00 0.00 82 1015.1
20260906041602 74 229 0.0 0.0 0.00 0.00 0.00 82 1015.1
20260906041503 74 230 0.0 0.0 0.00 0.00 0.00 82 1015.1
20260906041402 74 230 0.0 0.0 0.00 0.00 0.00 82 1015.0
20260906041300 74 230 0.0 0.0 0.00 0.00 0.00 82 1015.3
20260906041200 74 230 0.0 0.0 0.00 0.00 0.00 82 1015.1
20260906041100 74 230 0.0 0.0 0.00 0.00 0.00 82 1015.3
20260906040956 74 230 0.0 0.0 0.00 0.00 0.00 82 1015.1
20260906040857 74 230 0.0 0.0 0.00 0.00 0.00 83 1015.1
20260906040755 74 230 0.0 0.0 0.00 0.00 0.00 83 1015.3
20260906040656 74 230 0.0 0.0 0.00 0.00 0.00 83 1015.4
20260906040552 74 230 0.0 0.0 0.00 0.00 0.00 83 1015.3
20260906040453 74 230 0.0 0.0 0.00 0.00 0.00 82 1015.3
20260906040354 74 230 0.0 0.0 0.00 0.00 0.00 82 1015.3
20260906040254 74 231 0.0 0.0 0.00 0.00 0.00 82 1015.3
20260906040152 74 231 0.0 0.0 0.00 0.00 0.00 82 1015.3
20260906040050 74 232 0.0 0.0 0.00 0.00 0.00 82 1015.3
20260906035950 74 232 0.0 0.0 0.00 0.00 0.00 82 1015.1
20260906035850 74 233 0.0 0.0 0.00 0.00 0.00 82 1015.1
20260906035752 74 234 0.0 0.0 0.00 0.00 0.00 82 1015.1
20260906035646 74 234 0.0 0.0 0.00 0.00 0.00 82 1015.1
20260906035546 74 232 0.0 0.0 0.00 0.00 0.00 82 1015.1
20260906035447 74 234 0.0 0.0 0.00 0.00 0.00 82 1015.1
20260906035347 74 248 0.0 0.0 0.00 0.00 0.00 82 1015.1
20260906035247 74 247 0.0 0.0 0.00 0.00 0.00 82 1015.3
20260906035146 74 249 0.0 0.0 0.00 0.00 0.00 82 1015.1
20260906035047 74 273 0.0 0.0 0.00 0.00 0.00 82 1015.1
20260906034947 75 273 0.0 0.0 0.00 0.00 0.00 82 1015.1
20260906034846 75 238 0.0 0.0 0.00 0.00 0.00 83 1015.1
20260906034747 75 238 0.0 0.0 0.00 0.00 0.00 83 1015.1
20260906034648 75 238 0.0 0.0 0.00 0.00 0.00 83 1015.0
20260906034546 75 239 0.0 0.0 0.00 0.00 0.00 83 1015.1
20260906034447 75 239 0.0 0.0 0.00 0.00 0.00 83 1015.3
20260906034346 75 239 0.0 0.0 0.00 0.00 0.00 83 1015.1
20260906034246 75 223 0.0 0.0 0.00 0.00 0.00 83 1015.3
20260906034148 75 228 0.0 0.0 0.00 0.00 0.00 82 1015.3
20260906034047 75 231 0.0 0.0 0.00 0.00 0.00 82 1015.1
20260906033948 75 232 0.0 0.0 0.00 0.00 0.00 82 1015.3
20260906033846 75 234 0.0 0.0 0.00 0.00 0.00 82 1015.1
20260906033746 75 234 0.0 0.0 0.00 0.00 0.00 82 1015.3
20260906033648 75 235 0.0 0.0 0.00 0.00 0.00 82 1015.5
20260906033547 75 236 0.0 0.0 0.00 0.00 0.00 82 1015.4
20260906033446 75 236 0.0 0.0 0.00 0.00 0.00 81 1015.5
20260906033346 75 236 0.0 0.0 0.00 0.00 0.00 81 1015.4
20260906033247 75 239 0.0 0.0 0.00 0.00 0.00 81 1015.4
20260906033147 75 239 0.0 0.0 0.00 0.00 0.00 81 1015.4
20260906033047 75 240 0.0 0.0 0.00 0.00 0.00 81 1015.4
20260906032946 75 240 0.0 0.0 0.00 0.00 0.00 81 1015.5
20260906032846 75 240 0.0 0.0 0.00 0.00 0.00 81 1015.4
20260906032746 75 240 0.0 0.0 0.00 0.00 0.00 80 1015.4
20260906032647 75 240 0.0 0.0 0.00 0.00 0.00 80 1015.4
20260906032547 75 240 0.0 0.0 0.00 0.00 0.00 81 1015.4
20260906032448 75 240 0.0 0.0 0.00 0.00 0.00 80 1015.3
20260906032342 75 245 0.0 0.0 0.00 0.00 0.00 80 1015.3
20260906032244 75 246 0.0 0.0 0.00 0.00 0.00 80 1015.4
20260906032142 75 247 0.0 0.0 0.00 0.00 0.00 80 1015.4
20260906032043 76 248 0.0 0.0 0.00 0.00 0.00 80 1015.4
20260906031943 76 248 0.0 0.0 0.00 0.00 0.00 80 1015.4
20260906031843 76 249 0.0 0.0 0.00 0.00 0.00 80 1015.5
20260906031743 76 249 0.0 0.0 0.00 0.00 0.00 80 1015.5
20260906031643 76 249 0.0 0.0 0.00 0.00 0.00 80 1015.4
20260906031544 76 248 0.0 0.0 0.00 0.00 0.00 79 1015.4
20260906031442 76 248 0.0 0.0 0.00 0.00 0.00 79 1015.3
20260906031344 76 249 0.0 0.0 0.00 0.00 0.00 79 1015.3
20260906031242 76 249 0.0 0.0 0.00 0.00 0.00 79 1015.3
20260906031142 76 250 0.0 0.0 0.00 0.00 0.00 78 1015.3
20260906031044 76 250 0.0 0.0 0.00 0.00 0.00 78 1015.3
20260906030943 76 278 0.0 0.0 0.00 0.00 0.00 78 1015.4
20260906030843 76 279 0.0 0.0 0.00 0.00 0.00 78 1015.3
20260906030742 76 278 0.0 0.0 0.00 0.00 0.00 78 1015.3
20260906030643 76 290 0.0 0.0 0.00 0.00 0.00 78 1015.3
20260906030542 76 307 0.0 0.0 0.00 0.00 0.00 78 1015.4
20260906030442 76 309 0.0 0.0 0.00 0.00 0.00 78 1015.4
20260906030343 76 309 0.0 0.0 0.00 0.00 0.00 78 1015.5
20260906030244 76 309 0.0 0.0 0.00 0.00 0.00 77 1015.4
20260906030142 76 299 0.0 0.0 0.00 0.00 0.00 77 1015.5
20260906030044 76 300 0.0 0.0 0.00 0.00 0.00 77 1015.4
20260906025942 76 302 0.0 0.0 0.00 0.00 0.00 77 1015.4
20260906025843 76 296 0.0 0.0 0.00 0.00 0.00 76 1015.4
20260906025742 76 302 0.0 0.0 0.00 0.00 0.00 76 1015.4
20260906025642 76 302 0.0 0.0 0.00 0.00 0.00 76 1015.3
20260906025543 76 288 0.0 0.0 0.00 0.00 0.00 76 1015.3
20260906025442 76 302 0.0 0.0 0.00 0.00 0.00 76 1015.3
20260906025343 76 319 0.0 0.0 0.00 0.00 0.00 76 1015.4
20260906025243 76 297 0.0 0.0 0.00 0.00 0.00 76 1015.3
20260906025144 76 297 0.0 0.0 0.00 0.00 0.00 76 1015.3
20260906025040 76 297 0.0 0.0 0.00 0.00 0.00 76 1015.3
20260906024938 76 300 0.0 0.0 0.00 0.00 0.00 75 1015.1
20260906024840 76 300 0.0 0.0 0.00 0.00 0.00 75 1015.3
20260906024739 76 298 0.0 0.0 0.00 0.00 0.00 75 1015.1
20260906024639 76 298 0.0 0.0 0.00 0.00 0.00 75 1015.0
20260906024538 76 298 0.0 0.0 0.00 0.00 0.00 75 1015.0
20260906024438 76 312 0.0 0.0 0.00 0.00 0.00 76 1015.0
20260906024340 76 303 0.0 0.0 0.00 0.00 0.00 75 1014.9
20260906024238 76 295 0.0 0.0 0.00 0.00 0.00 75 1014.9
20260906024138 76 311 0.0 0.0 0.00 0.00 0.00 76 1014.9
20260906024040 76 283 0.0 0.0 0.00 0.00 0.00 75 1015.0
20260906023938 76 296 0.0 0.0 0.00 0.00 0.00 76 1015.0
20260906023839 76 302 0.0 0.0 0.00 0.00 0.00 76 1015.0
20260906023738 76 292 0.0 0.0 0.00 0.00 0.00 76 1015.0
20260906023638 76 279 0.0 0.0 0.00 0.00 0.00 76 1015.0
20260906023538 76 273 0.0 0.0 0.00 0.00 0.00 77 1014.9
20260906023438 76 286 0.0 0.0 0.00 0.00 0.00 77 1015.0
20260906023340 76 305 0.0 0.0 0.00 0.00 0.00 76 1015.0
20260906023236 76 275 0.0 0.0 0.00 0.00 0.00 76 1015.0
20260906023137 76 303 0.0 0.0 0.00 0.00 0.00 77 1015.1
20260906023034 76 317 0.0 0.0 0.00 0.00 0.00 76 1015.1
20260906022930 76 289 0.0 0.0 0.00 0.00 0.00 76 1015.1
20260906022831 76 323 0.0 0.0 0.00 0.00 0.00 76 1015.1
20260906022729 76 263 0.0 0.0 0.00 0.00 0.00 76 1015.1
20260906022621 77 294 0.0 0.0 0.00 0.00 0.00 76 1015.1
20260906022520 77 310 0.0 0.0 0.00 0.00 0.00 76 1015.1
20260906022418 77 297 0.0 0.0 0.00 0.00 0.00 76 1015.3
20260906022318 77 300 0.0 0.0 0.00 0.00 0.00 76 1015.3
20260906022217 77 266 0.0 0.0 0.00 0.00 0.00 76 1015.1
20260906022113 77 296 0.0 0.0 0.00 0.00 0.00 76 1015.1
20260906022013 77 288 0.0 0.0 0.00 0.00 0.00 75 1015.1
20260906021912 77 267 0.0 0.0 0.00 0.00 0.00 76 1015.1
20260906021814 77 295 0.0 0.0 0.00 0.00 0.00 76 1015.0
20260906021710 77 288 0.0 0.0 0.00 0.00 0.00 75 1015.1
20260906021610 77 291 0.0 0.0 0.00 0.00 0.00 75 1015.1
20260906021508 77 288 0.0 0.0 0.00 0.00 0.00 75 1015.3
20260906021406 77 294 0.0 0.0 0.00 0.00 0.00 75 1015.3
20260906021307 77 278 0.0 0.0 0.00 0.00 0.00 75 1015.1
20260906021203 77 305 0.0 0.0 0.00 0.00 0.00 75 1015.1
20260906021054 77 292 0.0 0.0 0.00 0.00 0.00 75 1015.1
20260906020953 77 311 0.0 0.0 0.00 0.00 0.00 75 1015.0
20260906020854 77 301 0.0 0.0 0.00 0.00 0.00 74 1015.0
20260906020752 77 288 0.0 0.0 0.00 0.00 0.00 75 1014.9
20260906020653 77 293 0.0 0.0 0.00 0.00 0.00 74 1015.0
20260906020550 77 282 0.0 0.0 0.00 0.00 0.00 74 1014.9
20260906020449 77 270 0.0 0.0 0.00 0.00 0.00 74 1014.9
20260906020352 77 284 0.0 0.0 0.00 0.00 0.00 74 1014.9
20260906020249 77 281 0.0 0.0 0.00 0.00 0.00 74 1014.8
20260906020147 77 277 0.0 0.0 0.00 0.00 0.00 74 1014.9
20260906020045 77 292 0.0 0.0 0.00 0.00 0.00 74 1015.0
20260906015944 77 306 0.0 0.0 0.00 0.00 0.00 74 1015.0
20260906015842 77 313 0.0 0.0 0.00 0.00 0.00 74 1014.9
20260906015744 77 282 0.0 0.0 0.00 0.00 0.00 75 1014.9
20260906015641 77 273 0.0 0.0 0.00 0.00 0.00 74 1014.9
20260906015538 77 274 0.0 0.0 0.00 0.00 0.00 74 1014.9
20260906015434 77 283 0.0 0.0 0.00 0.00 0.00 74 1014.9
20260906015334 77 308 0.0 0.0 0.00 0.00 0.00 74 1014.9
20260906015234 77 294 0.0 0.0 0.00 0.00 0.00 74 1015.0
20260906015130 77 312 0.0 0.0 0.00 0.00 0.00 74 1014.9
20260906015023 77 303 0.0 0.0 0.00 0.00 0.00 74 1014.9
20260906014923 77 304 0.0 0.0 0.00 0.00 0.00 74 1015.0
20260906014822 77 292 0.0 0.0 0.00 0.00 0.00 74 1014.8
20260906014722 77 313 0.0 0.0 0.00 0.00 0.00 74 1014.9
20260906014623 77 296 0.0 0.0 0.00 0.00 0.00 74 1014.9
20260906014519 77 293 0.0 0.0 0.00 0.00 0.00 74 1015.0
20260906014416 77 291 0.0 0.0 0.00 0.00 0.00 74 1014.9
20260906014318 77 307 0.0 0.0 0.00 0.00 0.00 74 1014.9
20260906014216 77 296 0.0 0.0 0.00 0.00 0.00 74 1014.9
20260906014117 77 325 0.0 0.0 0.00 0.00 0.00 74 1015.0
20260906014007 77 294 0.0 0.0 0.00 0.00 0.00 74 1014.9
20260906013907 77 296 0.0 0.0 0.00 0.00 0.00 74 1014.8
20260906013806 77 298 0.0 0.0 0.00 0.00 0.00 74 1014.9
20260906013707 77 278 0.0 0.0 0.00 0.00 0.00 73 1014.8
20260906013607 77 286 0.0 0.0 0.00 0.00 0.00 73 1014.8
20260906013500 77 317 0.0 0.0 0.00 0.00 0.00 73 1014.9
20260906013400 77 300 0.0 0.0 0.00 0.00 0.00 73 1014.9
20260906013300 77 287 0.0 0.0 0.00 0.00 0.00 73 1014.9
20260906013202 78 309 0.0 0.0 0.00 0.00 0.00 73 1014.8
20260906013100 78 309 0.0 0.0 0.00 0.00 0.00 73 1014.8
20260906013002 78 304 0.0 0.0 0.00 0.00 0.00 73 1014.9
20260906012858 78 303 0.0 0.0 0.00 0.00 0.00 73 1014.9
20260906012758 78 292 0.0 0.0 0.00 0.00 0.00 73 1014.9
20260906012656 78 298 0.0 0.0 0.00 0.00 0.00 73 1014.9
20260906012553 78 298 0.0 0.0 0.00 0.00 0.00 73 1014.8
20260906012443 78 281 0.0 0.0 0.00 0.00 0.00 72 1014.9
20260906012343 78 288 0.0 0.0 0.00 0.00 0.00 72 1014.9
20260906012243 78 303 0.0 0.0 0.00 0.00 0.00 72 1014.9
20260906012142 78 270 0.0 0.0 0.00 0.00 0.00 72 1014.8
20260906012043 78 271 0.0 0.0 0.00 0.00 0.00 71 1014.7
20260906011939 78 288 0.0 0.0 0.00 0.00 0.00 71 1014.8
20260906011839 78 288 0.0 0.0 0.00 0.00 0.00 71 1014.8
20260906011738 78 288 0.0 0.0 0.00 0.00 0.00 71 1014.7
20260906011638 78 286 0.0 0.0 0.00 0.00 0.00 71 1014.8
20260906011535 78 292 0.0 0.0 0.00 0.00 0.00 71 1014.7
20260906011432 78 282 0.0 0.0 0.00 0.00 0.00 71 1014.7
20260906011332 78 285 0.0 0.0 0.00 0.00 0.00 71 1014.8
20260906011233 78 300 0.0 0.0 0.00 0.00 0.00 71 1014.8
20260906011131 78 300 0.0 0.0 0.00 0.00 0.00 70 1014.7
20260906011029 78 288 0.0 0.0 0.00 0.00 0.00 70 1014.7
20260906010924 78 286 0.0 0.0 0.00 0.00 0.00 70 1014.7
20260906010822 78 289 0.0 0.0 0.00 0.00 0.00 70 1014.7
20260906010720 78 282 0.0 0.0 0.00 0.00 0.00 70 1014.7
20260906010622 78 303 0.0 0.0 0.00 0.00 0.00 70 1014.7
20260906010519 78 304 0.0 0.0 0.00 0.00 0.00 70 1014.6
20260906010420 78 319 0.0 0.0 0.00 0.00 0.00 70 1014.6
20260906010316 78 320 0.0 0.0 0.00 0.00 0.00 71 1014.6
20260906010216 78 317 0.0 0.0 0.00 0.00 0.00 71 1014.5
20260906010115 78 293 0.0 0.0 0.00 0.00 0.00 71 1014.6
20260906010012 78 293 0.0 0.0 0.00 0.00 0.00 71 1014.5
20260906005908 78 292 0.0 0.0 0.00 0.00 0.00 71 1014.6
20260906005807 78 259 0.0 0.0 0.00 0.00 0.00 72 1014.5
20260906005707 78 282 0.0 0.0 0.00 0.00 0.00 72 1014.5
20260906005606 78 282 0.0 0.0 0.00 0.00 0.00 72 1014.5
20260906005507 78 282 0.0 0.0 0.00 0.00 0.00 72 1014.5
20260906005401 78 277 0.0 0.0 0.00 0.00 0.00 72 1014.4
20260906005301 78 271 0.0 0.0 0.00 0.00 0.00 72 1014.5
20260906005201 78 288 0.0 0.0 0.00 0.00 0.00 72 1014.5
20260906005059 78 289 0.0 0.0 0.00 0.00 0.00 72 1014.5
20260906004956 78 287 0.0 0.0 0.00 0.00 0.00 72 1014.5
20260906004853 78 300 0.0 0.0 0.00 0.00 0.00 72 1014.5
20260906004750 78 303 0.0 0.0 0.00 0.00 0.00 72 1014.5
20260906004651 78 302 0.0 0.0 0.00 0.00 0.00 72 1014.5
20260906004551 78 302 0.0 0.0 0.00 0.00 0.00 72 1014.5
20260906004451 78 304 0.0 0.0 0.00 0.00 0.00 72 1014.5
20260906004347 78 297 0.0 0.0 0.00 0.00 0.00 72 1014.5
20260906004247 78 298 0.0 0.0 0.00 0.00 0.00 72 1014.4
20260906004146 78 296 0.0 0.0 0.00 0.00 0.00 72 1014.4
20260906004047 78 292 0.0 0.0 0.00 0.00 0.00 72 1014.4
20260906003944 78 294 0.0 0.0 0.00 0.00 0.00 72 1014.4
20260906003838 78 291 0.0 0.0 0.00 0.00 0.00 72 1014.4
20260906003738 78 306 0.0 0.0 0.00 0.00 0.00 72 1014.4
20260906003637 78 304 0.0 0.0 0.00 0.00 0.00 72 1014.4
20260906003537 78 305 0.0 0.0 0.00 0.00 0.00 73 1014.4
20260906003435 78 295 0.0 0.0 0.00 0.00 0.00 73 1014.4
20260906003336 78 307 0.0 0.0 0.00 0.00 0.00 73 1014.4
20260906003232 78 281 0.0 0.0 0.00 0.00 0.00 73 1014.3
20260906003132 78 281 0.0 0.0 0.00 0.00 0.00 73 1014.4
20260906003031 78 280 0.0 0.0 0.00 0.00 0.00 73 1014.4
20260906002929 78 275 0.0 0.0 0.00 0.00 0.00 73 1014.4
20260906002828 78 271 0.0 0.0 0.00 0.00 0.00 74 1014.3
20260906002727 78 272 0.0 0.0 0.00 0.00 0.00 74 1014.3
20260906002627 78 272 0.0 0.0 0.00 0.00 0.00 74 1014.3
20260906002525 78 272 0.0 0.0 0.00 0.00 0.00 74 1014.3
20260906002423 78 275 0.0 0.0 0.00 0.00 0.00 74 1014.2
20260906002314 78 274 0.0 0.0 0.00 0.00 0.00 74 1014.2
20260906002213 78 275 0.0 0.0 0.00 0.00 0.00 74 1014.1
20260906002113 78 275 0.0 0.0 0.00 0.00 0.00 73 1014.1
20260906002012 78 274 0.0 0.0 0.00 0.00 0.00 73 1014.1
20260906001912 78 275 0.0 0.0 0.00 0.00 0.00 74 1013.9
20260906001807 78 275 0.0 0.0 0.00 0.00 0.00 73 1014.0
20260906001706 78 275 0.0 0.0 0.00 0.00 0.00 73 1013.9
20260906001606 78 276 0.0 0.0 0.00 0.00 0.00 73 1014.0
20260906001506 78 271 0.0 0.0 0.00 0.00 0.00 74 1014.0
20260906001406 78 271 0.0 0.0 0.00 0.00 0.00 73 1014.0
20260906001305 78 276 0.0 0.0 0.00 0.00 0.00 74 1013.9
20260906001204 78 277 0.0 0.0 0.00 0.00 0.00 74 1013.9
20260906001104 78 277 0.0 0.0 0.00 0.00 0.00 74 1014.0
20260906001003 78 277 0.0 0.0 0.00 0.00 0.00 73 1013.9
20260906000901 78 276 0.0 0.0 0.00 0.00 0.00 74 1013.9
20260906000754 78 270 0.0 0.0 0.00 0.00 0.00 74 1013.9
20260906000655 78 270 0.0 0.0 0.00 0.00 0.00 74 1013.9
20260906000554 78 270 0.0 0.0 0.00 0.00 0.00 74 1013.9
20260906000455 78 267 0.0 0.0 0.00 0.00 0.00 74 1013.9
20260906000350 78 267 0.0 0.0 0.00 0.00 0.00 74 1014.0
20260906000249 78 265 0.0 0.0 0.00 0.00 0.00 74 1014.0
20260906000148 78 268 0.0 0.0 0.00 0.00 0.00 74 1013.9
20260906000048 78 283 0.0 0.0 0.00 0.00 0.00 74 1013.9
20260905235947 78 296 0.0 0.0 0.00 0.00 0.00 75 1013.9
20260905235846 78 270 0.0 0.0 0.00 0.00 0.00 74 1013.8
20260905235745 78 301 0.0 0.0 0.00 0.00 0.00 74 1013.8
20260905235642 78 278 0.0 0.0 0.00 0.00 0.00 75 1013.8
20260905235543 78 267 0.0 0.0 0.00 0.00 0.00 74 1013.8
20260905235441 78 269 0.0 0.0 0.00 0.00 0.00 74 1013.8
20260905235339 78 273 0.0 0.0 0.00 0.00 0.00 74 1013.7
20260905235231 78 271 0.0 0.0 0.00 0.00 0.00 74 1013.7
20260905235128 78 271 0.0 0.0 0.00 0.00 0.00 75 1013.5
20260905235028 78 280 0.0 0.0 0.00 0.00 0.00 74 1013.7
20260905234928 78 279 0.0 0.0 0.00 0.00 0.00 75 1013.7
20260905234829 78 278 0.0 0.0 0.00 0.00 0.00 74 1013.7
20260905234728 78 279 0.0 0.0 0.00 0.00 0.00 75 1013.7
20260905234626 78 302 0.0 0.0 0.00 0.00 0.00 75 1013.8
20260905234524 78 302 0.0 0.0 0.00 0.00 0.00 74 1013.8
20260905234426 78 302 0.0 0.0 0.00 0.00 0.00 74 1013.8
20260905234323 78 302 0.0 0.0 0.00 0.00 0.00 75 1013.7
20260905234219 78 234 0.0 0.0 0.00 0.00 0.00 74 1013.7
20260905234119 78 234 0.0 0.0 0.00 0.00 0.00 74 1013.8
20260905234017 78 234 0.0 0.0 0.00 0.00 0.00 74 1013.7
20260905233920 78 234 0.0 0.0 0.00 0.00 0.00 74 1013.7
20260905233817 78 234 0.0 0.0 0.00 0.00 0.00 74 1013.7
20260905233706 78 225 0.0 0.0 0.00 0.00 0.00 74 1013.8
20260905233605 78 225 0.0 0.0 0.00 0.00 0.00 74 1013.8
20260905233506 78 225 0.0 0.0 0.00 0.00 0.00 74 1013.8
20260905233406 78 225 0.0 0.0 0.00 0.00 0.00 74 1013.8
20260905233307 78 205 0.0 0.0 0.00 0.00 0.00 73 1013.7
20260905233202 78 193 0.0 0.0 0.00 0.00 0.00 73 1013.7
20260905233102 79 193 0.0 0.0 0.00 0.00 0.00 73 1013.8
20260905233003 79 193 0.0 0.0 0.00 0.00 0.00 73 1013.7
20260905232903 79 193 0.0 0.0 0.00 0.00 0.00 73 1013.7
20260905232801 79 193 0.0 0.0 0.00 0.00 0.00 73 1013.8
20260905232658 79 193 0.0 0.0 0.00 0.00 0.00 73 1013.7
20260905232558 79 193 0.0 0.0 0.00 0.00 0.00 73 1013.7
20260905232457 79 193 0.0 0.0 0.00 0.00 0.00 73 1013.7
20260905232357 79 193 0.0 0.0 0.00 0.00 0.00 73 1013.8
20260905232255 79 193 0.0 0.0 0.00 0.00 0.00 73 1013.7
20260905232148 79 193 0.0 0.0 0.00 0.00 0.00 73 1013.8
20260905232049 79 193 0.0 0.0 0.00 0.00 0.00 73 1013.8
20260905231946 79 193 0.0 0.0 0.00 0.00 0.00 73 1013.7
20260905231847 79 193 0.0 0.0 0.00 0.00 0.00 73 1013.7
20260905231745 79 193 0.0 0.0 0.00 0.00 0.00 73 1013.8
20260905231644 79 194 0.0 0.0 0.00 0.00 0.00 72 1013.7
20260905231543 79 194 0.0 0.0 0.00 0.00 0.00 72 1013.7
20260905231442 79 194 0.0 0.0 0.00 0.00 0.00 72 1013.7
20260905231342 79 194 0.0 0.0 0.00 0.00 0.00 72 1013.7
20260905231239 80 194 0.0 0.0 0.00 0.00 0.00 72 1013.7
20260905231139 80 194 0.0 0.0 0.00 0.00 0.00 72 1013.7
20260905231037 80 194 0.0 0.0 0.00 0.00 0.00 72 1013.4
20260905230936 80 194 0.0 0.0 0.00 0.00 0.00 72 1013.4
20260905230836 80 194 0.0 0.0 0.00 0.00 0.00 71 1013.4
20260905230732 80 194 0.0 0.0 0.00 0.00 0.00 72 1013.5
20260905230626 80 194 0.0 0.0 0.00 0.00 0.00 71 1013.5
20260905230527 80 194 0.0 0.0 0.00 0.00 0.00 71 1013.4
20260905230425 80 194 0.0 0.0 0.00 0.00 0.00 71 1013.5
20260905230324 80 194 0.0 0.0 0.00 0.00 0.00 71 1013.5
20260905230223 80 194 0.0 0.0 0.00 0.00 0.00 71 1013.5
20260905230117 80 194 0.0 0.0 0.00 0.00 0.00 71 1013.5
20260905230017 80 194 0.0 0.0 0.00 0.00 0.00 71 1013.7
20260905225917 80 237 0.0 0.0 0.00 0.00 0.00 71 1013.7
20260905225817 80 238 0.0 0.0 0.00 0.00 0.00 71 1013.5
20260905225717 80 238 0.0 0.0 0.00 0.00 0.00 71 1013.7
20260905225616 80 237 0.0 0.0 0.00 0.00 0.00 71 1013.5
20260905225515 80 237 0.0 0.0 0.00 0.00 0.00 71 1013.5
20260905225414 80 237 0.0 0.0 0.00 0.00 0.00 71 1013.5
20260905225313 80 237 0.0 0.0 0.00 0.00 0.00 71 1013.5
20260905225211 80 237 0.0 0.0 0.00 0.00 0.00 70 1013.7
20260905225103 80 237 0.0 0.0 0.00 0.00 0.00 70 1013.5
20260905225001 80 237 0.0 0.0 0.00 0.00 0.00 70 1013.5
20260905224900 80 237 0.0 0.0 0.00 0.00 0.00 70 1013.5
20260905224801 80 237 0.0 0.0 0.00 0.00 0.00 70 1013.5
20260905224701 80 237 0.0 0.0 0.00 0.00 0.00 70 1013.5
20260905224557 80 237 0.0 0.0 0.00 0.00 0.00 70 1013.5
20260905224457 80 237 0.0 0.0 0.00 0.00 0.00 69 1013.7
20260905224357 80 237 0.0 0.0 0.00 0.00 0.00 70 1013.7
20260905224257 81 226 0.0 0.0 0.00 0.00 0.00 71 1013.8
20260905224154 81 226 0.0 0.0 0.00 0.00 0.00 70 1013.7
20260905224055 81 226 0.0 0.0 0.00 0.00 0.00 69 1013.7
20260905223954 81 226 0.0 0.0 0.00 0.00 0.00 70 1013.7
20260905223850 81 226 0.0 0.0 0.00 0.00 0.00 69 1013.8
20260905223751 81 225 0.0 0.0 0.00 0.00 0.00 68 1013.8
20260905223650 81 225 0.0 0.0 0.00 0.00 0.00 69 1013.8
20260905223543 81 218 0.0 0.0 0.00 0.00 0.00 69 1013.8
20260905223442 81 196 0.0 0.0 0.00 0.00 0.00 69 1013.8
20260905223342 81 196 0.0 0.0 0.00 0.00 0.00 69 1013.8
20260905223241 81 200 0.0 0.0 0.00 0.00 0.00 69 1013.8
20260905223139 81 201 0.0 0.9 0.00 0.00 0.00 69 1013.7
20260905223035 81 202 0.0 2.6 0.00 0.00 0.00 69 1013.8
20260905222937 81 204 0.0 2.6 0.00 0.00 0.00 69 1013.8
20260905222836 81 204 0.0 2.6 0.00 0.00 0.00 69 1013.8
20260905222735 81 204 0.0 2.6 0.00 0.00 0.00 68 1013.7
20260905222633 81 204 0.0 2.6 0.00 0.00 0.00 68 1013.7
20260905222530 82 184 0.0 2.6 0.00 0.00 0.00 68 1013.5
20260905222430 82 242 0.0 2.6 0.00 0.00 0.00 68 1013.8
20260905222330 82 242 0.9 2.6 0.00 0.00 0.00 67 1013.7
20260905222228 82 242 0.9 3.5 0.00 0.00 0.00 68 1013.7
20260905222126 82 273 0.9 3.5 0.00 0.00 0.00 68 1013.7
20260905222018 82 211 0.9 3.5 0.00 0.00 0.00 68 1013.7
20260905221917 82 211 0.9 3.5 0.00 0.00 0.00 68 1013.7
20260905221817 82 211 0.9 3.5 0.00 0.00 0.00 68 1013.7
20260905221716 82 241 0.9 5.2 0.00 0.00 0.00 68 1013.5
20260905221616 82 242 0.9 5.2 0.00 0.00 0.00 68 1013.7
20260905221511 82 241 0.9 5.2 0.00 0.00 0.00 67 1013.7
20260905221413 82 242 0.9 5.2 0.00 0.00 0.00 66 1013.7
20260905221312 82 234 0.9 5.2 0.00 0.00 0.00 68 1013.7
20260905221213 82 175 0.9 5.2 0.00 0.00 0.00 67 1013.5
20260905221110 82 175 0.9 5.2 0.00 0.00 0.00 68 1013.5
20260905221006 83 204 0.9 5.2 0.00 0.00 0.00 67 1013.5
20260905220907 83 204 0.9 5.2 0.00 0.00 0.00 68 1013.5
20260905220806 83 205 0.9 5.2 0.00 0.00 0.00 66 1013.7
20260905220706 83 290 0.9 3.5 0.00 0.00 0.00 66 1013.5
20260905220604 83 290 0.9 3.5 0.00 0.00 0.00 66 1013.5
20260905220455 83 189 0.9 2.6 0.00 0.00 0.00 67 1013.7
20260905220355 83 189 0.9 2.6 0.00 0.00 0.00 67 1013.7
20260905220253 83 189 0.9 2.6 0.00 0.00 0.00 67 1013.7
20260905220154 83 189 0.9 2.6 0.00 0.00 0.00 67 1013.7
20260905220055 83 189 0.9 2.6 0.00 0.00 0.00 66 1013.7
20260905215948 83 193 0.9 2.6 0.00 0.00 0.00 66 1013.8
20260905215848 83 301 0.9 2.6 0.00 0.00 0.00 66 1013.8
20260905215748 83 301 0.9 2.6 0.00 0.00 0.00 66 1013.8
20260905215648 83 300 0.9 2.6 0.00 0.00 0.00 65 1013.8
20260905215549 83 298 0.9 2.6 0.00 0.00 0.00 66 1013.8
20260905215446 83 346 0.9 2.6 0.00 0.00 0.00 65 1013.9
20260905215347 83 346 0.9 2.6 0.00 0.00 0.00 65 1013.8
20260905215246 83 304 0.9 2.6 0.00 0.00 0.00 65 1013.8
20260905215145 83 182 0.9 1.7 0.00 0.00 0.00 66 1013.9
20260905215043 83 181 0.9 2.6 0.00 0.00 0.00 66 1013.9
20260905214935 83 248 0.9 3.5 0.00 0.00 0.00 66 1014.0
20260905214833 83 249 0.9 3.5 0.00 0.00 0.00 67 1014.0
20260905214732 83 247 0.9 3.5 0.00 0.00 0.00 66 1014.0
20260905214631 83 247 0.9 3.5 0.00 0.00 0.00 66 1014.0
20260905214533 83 248 0.9 3.5 0.00 0.00 0.00 67 1014.0
20260905214428 83 236 0.9 3.5 0.00 0.00 0.00 67 1014.0
20260905214329 83 238 0.9 3.5 0.00 0.00 0.00 65 1014.0
20260905214229 83 239 0.9 3.5 0.00 0.00 0.00 65 1014.0
20260905214128 83 234 0.9 3.5 0.00 0.00 0.00 65 1014.0
20260905214027 83 81 0.9 2.6 0.00 0.00 0.00 66 1014.1
20260905213923 83 197 0.9 3.5 0.00 0.00 0.00 65 1014.1
20260905213819 83 254 0.9 3.5 0.00 0.00 0.00 66 1014.1
20260905213721 83 155 0.9 3.5 0.00 0.00 0.00 66 1014.1
20260905213621 83 159 0.9 3.5 0.00 0.00 0.00 65 1014.1
20260905213521 83 150 0.9 3.5 0.00 0.00 0.00 65 1014.0
20260905213414 83 99 0.9 3.5 0.00 0.00 0.00 67 1014.1
20260905213312 83 119 1.7 3.5 0.00 0.00 0.00 67 1014.1
20260905213212 83 116 1.7 3.5 0.00 0.00 0.00 65 1014.0
20260905213113 83 151 1.7 3.5 0.00 0.00 0.00 65 1014.0
20260905213011 83 148 1.7 3.5 0.00 0.00 0.00 66 1014.0
20260905212904 83 193 1.7 3.5 0.00 0.00 0.00 66 1014.1
20260905212804 82 151 1.7 3.5 0.00 0.00 0.00 67 1014.0
20260905212704 82 112 0.9 3.5 0.00 0.00 0.00 66 1014.0
20260905212604 82 126 0.9 3.5 0.00 0.00 0.00 67 1014.1
20260905212505 82 333 0.9 3.5 0.00 0.00 0.00 69 1014.0
20260905212400 82 320 0.9 3.5 0.00 0.00 0.00 67 1014.0
20260905212301 82 316 0.9 3.5 0.00 0.00 0.00 66 1013.9
20260905212200 82 155 0.9 3.5 0.00 0.00 0.00 69 1014.0
20260905212059 82 165 0.9 3.5 0.00 0.00 0.00 70 1014.0
20260905211959 82 165 0.9 3.5 0.00 0.00 0.00 69 1013.8
20260905211849 82 162 1.7 4.3 0.00 0.00 0.00 68 1013.9
20260905211749 82 314 1.7 4.3 0.00 0.00 0.00 68 1013.9
20260905211649 81 30 1.7 4.3 0.00 0.00 0.00 69 1013.8
20260905211548 81 312 1.7 4.3 0.00 0.00 0.00 70 1013.8
20260905211448 81 304 1.7 4.3 0.00 0.00 0.00 70 1013.8
20260905211346 81 304 1.7 8.7 0.00 0.00 0.00 70 1013.8
20260905211245 81 298 1.7 8.7 0.00 0.00 0.00 69 1013.8
20260905211144 81 271 1.7 8.7 0.00 0.00 0.00 71 1013.8
20260905211045 81 232 1.7 8.7 0.00 0.00 0.00 70 1013.9
20260905210943 81 169 1.7 8.7 0.00 0.00 0.00 69 1013.9
20260905210838 81 191 1.7 8.7 0.00 0.00 0.00 69 1013.7
20260905210739 80 188 1.7 8.7 0.00 0.00 0.00 70 1013.7
20260905210637 80 260 1.7 8.7 0.00 0.00 0.00 70 1013.7
20260905210538 80 186 1.7 8.7 0.00 0.00 0.00 70 1013.7
20260905210437 80 288 1.7 7.0 0.00 0.00 0.00 70 1013.7
20260905210329 80 0 1.7 3.5 0.00 0.00 0.00 69 1013.7
20260905210226 80 323 1.7 3.5 0.00 0.00 0.00 69 1013.8
20260905210126 80 271 1.7 5.2 0.00 0.00 0.00 69 1013.7
20260905210026 80 317 1.7 5.2 0.00 0.00 0.00 69 1013.7
20260905205927 80 9 1.7 5.2 0.00 0.00 0.00 70 1013.7
20260905205820 80 308 1.7 5.2 0.00 0.00 0.00 71 1013.7
20260905205721 80 15 1.7 5.2 0.00 0.00 0.00 70 1013.5
20260905205620 80 224 1.7 5.2 0.00 0.00 0.00 71 1013.7
20260905205521 80 290 1.7 5.2 0.00 0.00 0.00 72 1013.5
20260905205421 80 336 1.7 5.2 0.00 0.00 0.00 71 1013.7
20260905205317 80 277 2.6 7.0 0.00 0.00 0.00 71 1013.7
20260905205213 80 309 1.7 7.0 0.00 0.00 0.00 73 1013.5
20260905205115 80 260 1.7 7.0 0.00 0.00 0.00 72 1013.5
20260905205014 79 281 1.7 7.0 0.00 0.00 0.00 71 1013.5
20260905204914 79 300 1.7 7.0 0.00 0.00 0.00 72 1013.7
20260905204805 79 261 1.7 7.0 0.00 0.00 0.00 71 1013.7
20260905204703 79 294 1.7 7.0 0.00 0.00 0.00 70 1013.5
20260905204605 79 252 1.7 7.0 0.00 0.00 0.00 71 1013.7
20260905204503 79 202 1.7 7.0 0.00 0.00 0.00 71 1013.7
20260905204404 79 304 1.7 6.1 0.00 0.00 0.00 72 1013.7
20260905204300 79 326 1.7 6.1 0.00 0.00 0.00 74 1013.8
20260905204159 79 23 1.7 6.1 0.00 0.00 0.00 73 1013.7
20260905204100 79 231 1.7 6.1 0.00 0.00 0.00 72 1013.8
20260905203959 79 234 1.7 6.1 0.00 0.00 0.00 71 1013.8
20260905203859 79 157 1.7 4.3 0.00 0.00 0.00 72 1013.8
20260905203755 79 157 1.7 4.3 0.00 0.00 0.00 72 1013.8
20260905203654 79 320 1.7 4.3 0.00 0.00 0.00 71 1013.8
20260905203554 79 288 1.7 4.3 0.00 0.00 0.00 72 1013.8
20260905203455 79 279 1.7 4.3 0.00 0.00 0.00 72 1013.9
20260905203352 79 175 1.7 5.2 0.00 0.00 0.00 72 1013.9
20260905203245 79 183 1.7 5.2 0.00 0.00 0.00 71 1013.8
20260905203142 79 195 1.7 5.2 0.00 0.00 0.00 72 1013.9
20260905203041 79 188 1.7 5.2 0.00 0.00 0.00 72 1014.0
20260905202940 79 192 1.7 5.2 0.00 0.00 0.00 72 1013.9
20260905202839 79 153 1.7 5.2 0.00 0.00 0.00 73 1013.9
20260905202734 79 174 1.7 5.2 0.00 0.00 0.00 72 1014.0
20260905202634 79 174 1.7 5.2 0.00 0.00 0.00 72 1014.0
20260905202534 79 217 1.7 5.2 0.00 0.00 0.00 72 1014.0
20260905202435 80 198 1.7 5.2 0.00 0.00 0.00 72 1014.0
20260905202333 80 131 1.7 5.2 0.00 0.00 0.00 73 1014.1
20260905202228 80 130 1.7 5.2 0.00 0.00 0.00 72 1014.1
20260905202130 80 132 1.7 5.2 0.00 0.00 0.00 73 1014.1
20260905202028 80 176 0.9 5.2 0.00 0.00 0.00 73 1014.0
20260905201928 80 134 0.9 3.5 0.00 0.00 0.00 73 1014.1
20260905201827 80 134 0.9 3.5 0.00 0.00 0.00 73 1014.2
20260905201719 80 163 0.9 3.5 0.00 0.00 0.00 72 1014.1
20260905201617 80 157 0.9 2.6 0.00 0.00 0.00 72 1014.1
20260905201517 80 158 0.9 2.6 0.00 0.00 0.00 73 1014.1
20260905201417 80 74 0.9 2.6 0.00 0.00 0.00 73 1014.1
20260905201317 80 63 0.9 2.6 0.00 0.00 0.00 72 1014.1
20260905201210 80 0 0.9 2.6 0.00 0.00 0.00 73 1014.1
20260905201109 80 306 0.9 2.6 0.00 0.00 0.00 74 1014.1
20260905201011 80 197 0.9 2.6 0.00 0.00 0.00 73 1014.1
20260905200909 80 293 0.9 2.6 0.00 0.00 0.00 73 1014.1
20260905200810 80 211 0.9 2.6 0.00 0.00 0.00 72 1014.2
20260905200710 80 241 0.9 2.6 0.00 0.00 0.00 74 1014.2
20260905200608 80 271 0.9 2.6 0.00 0.00 0.00 73 1014.2
20260905200508 80 269 0.9 2.6 0.00 0.00 0.00 73 1014.1
20260905200407 80 269 0.9 2.6 0.00 0.00 0.00 72 1014.1
20260905200304 80 263 0.9 2.6 0.00 0.00 0.00 72 1014.2
20260905200203 80 220 0.9 2.6 0.00 0.00 0.00 72 1014.1
20260905200104 80 148 0.9 2.6 0.00 0.00 0.00 72 1014.2
20260905200001 80 148 0.9 2.6 0.00 0.00 0.00 74 1014.1
20260905195901 80 148 0.9 3.5 0.00 0.00 0.00 73 1014.1
20260905195759 80 148 0.9 3.5 0.00 0.00 0.00 72 1014.2
20260905195646 80 148 0.9 3.5 0.00 0.00 0.00 73 1014.1
20260905195545 80 150 0.9 3.5 0.00 0.00 0.00 72 1014.1
20260905195446 80 150 0.9 3.5 0.00 0.00 0.00 71 1014.2
20260905195346 80 157 0.9 3.5 0.00 0.00 0.00 72 1014.1
20260905195244 80 169 0.9 3.5 0.00 0.00 0.00 74 1014.2
20260905195139 80 169 0.9 3.5 0.00 0.00 0.00 72 1014.2
20260905195040 79 169 0.9 3.5 0.00 0.00 0.00 72 1014.2
20260905194939 79 169 0.9 3.5 0.00 0.00 0.00 72 1014.1
20260905194839 79 172 0.9 6.1 0.00 0.00 0.00 71 1014.1
20260905194738 79 176 0.9 6.1 0.00 0.00 0.00 72 1014.2
20260905194628 79 175 0.9 6.1 0.00 0.00 0.00 72 1014.1
20260905194528 79 192 0.9 6.1 0.00 0.00 0.00 72 1014.1
20260905194428 79 189 0.9 6.1 0.00 0.00 0.00 71 1014.1
20260905194329 79 242 0.9 6.1 0.00 0.00 0.00 72 1014.1
20260905194228 79 242 1.7 6.1 0.00 0.00 0.00 73 1014.0
20260905194124 79 269 1.7 6.1 0.00 0.00 0.00 73 1013.9
20260905194024 79 245 1.7 6.1 0.00 0.00 0.00 70 1014.0
20260905193925 79 185 0.9 3.5 0.00 0.00 0.00 70 1013.9
20260905193824 79 197 0.9 3.5 0.00 0.00 0.00 72 1013.9
20260905193722 79 200 1.7 3.5 0.00 0.00 0.00 73 1014.0
20260905193618 79 177 1.7 3.5 0.00 0.00 0.00 73 1014.0
20260905193518 79 191 1.7 3.5 0.00 0.00 0.00 73 1014.0
20260905193418 79 191 1.7 3.5 0.00 0.00 0.00 73 1013.9
20260905193318 79 276 0.9 2.6 0.00 0.00 0.00 73 1013.9
20260905193217 79 275 0.9 2.6 0.00 0.00 0.00 72 1014.1
20260905193107 79 221 0.9 2.6 0.00 0.00 0.00 73 1014.1
20260905193007 79 297 0.9 2.6 0.00 0.00 0.00 73 1014.1
20260905192907 79 297 1.7 2.6 0.00 0.00 0.00 73 1014.2
20260905192806 79 292 1.7 2.6 0.00 0.00 0.00 73 1014.2
20260905192707 79 311 1.7 2.6 0.00 0.00 0.00 74 1014.3
20260905192603 79 202 1.7 2.6 0.00 0.00 0.00 73 1014.2
20260905192501 78 202 1.7 4.3 0.00 0.00 0.00 72 1014.3
20260905192400 78 186 1.7 4.3 0.00 0.00 0.00 74 1014.3
20260905192301 78 185 1.7 4.3 0.00 0.00 0.00 73 1014.3
20260905192201 78 274 1.7 4.3 0.00 0.00 0.00 72 1014.2
20260905192053 78 275 1.7 4.3 0.00 0.00 0.00 73 1014.3
20260905191955 78 274 1.7 4.3 0.00 0.00 0.00 71 1014.2
20260905191854 78 271 1.7 4.3 0.00 0.00 0.00 71 1014.2
20260905191753 78 273 1.7 4.3 0.00 0.00 0.00 71 1014.2
20260905191655 78 271 1.7 4.3 0.00 0.00 0.00 71 1014.2
20260905191546 78 297 1.7 4.3 0.00 0.00 0.00 72 1014.2
20260905191444 78 323 1.7 3.5 0.00 0.00 0.00 72 1014.2
20260905191345 78 318 1.7 3.5 0.00 0.00 0.00 71 1014.1
20260905191243 78 329 1.7 5.2 0.00 0.00 0.00 73 1014.1
20260905191145 78 329 1.7 5.2 0.00 0.00 0.00 73 1014.0
20260905191044 78 327 2.6 5.2 0.00 0.00 0.00 72 1014.0
20260905190943 78 295 2.6 5.2 0.00 0.00 0.00 73 1013.9
20260905190839 78 295 2.6 5.2 0.00 0.00 0.00 72 1013.9
20260905190740 78 294 2.6 5.2 0.00 0.00 0.00 71 1013.9
20260905190638 78 328 3.5 6.1 0.00 0.00 0.00 71 1013.9
20260905190531 78 296 3.5 7.0 0.00 0.00 0.00 70 1013.8
20260905190432 78 296 3.5 7.0 0.00 0.00 0.00 69 1013.9
20260905190330 78 289 4.3 7.8 0.00 0.00 0.00 70 1013.9
20260905190229 78 315 4.3 7.8 0.00 0.00 0.00 71 1013.9
20260905190130 78 298 4.3 7.8 0.00 0.00 0.00 69 1013.9
20260905190022 78 342 4.3 7.8 0.00 0.00 0.00 69 1013.9
20260905185922 78 340 4.3 7.8 0.00 0.00 0.00 71 1013.9
20260905185821 78 337 4.3 7.8 0.00 0.00 0.00 71 1013.8
20260905185722 78 325 5.2 7.8 0.00 0.00 0.00 69 1014.0
20260905185621 78 318 4.3 7.8 0.00 0.00 0.00 70 1013.9
20260905185517 78 311 4.3 7.8 0.00 0.00 0.00 69 1013.8
20260905185414 77 323 4.3 7.8 0.00 0.00 0.00 71 1013.9
20260905185315 77 324 4.3 7.8 0.00 0.00 0.00 71 1013.9
20260905185214 77 313 4.3 7.8 0.00 0.00 0.00 72 1013.9
20260905185115 77 318 4.3 7.8 0.00 0.00 0.00 72 1014.0
20260905185009 77 337 4.3 7.8 0.00 0.00 0.00 71 1014.0
20260905184908 77 326 4.3 7.8 0.00 0.00 0.00 71 1014.0
20260905184808 77 332 5.2 7.8 0.00 0.00 0.00 70 1013.9
20260905184708 77 299 5.2 8.7 0.00 0.00 0.00 71 1013.9
20260905184609 77 341 5.2 8.7 0.00 0.00 0.00 71 1014.0
20260905184458 77 340 5.2 8.7 0.00 0.00 0.00 71 1013.9
20260905184359 77 335 5.2 8.7 0.00 0.00 0.00 71 1013.9
20260905184259 77 304 5.2 8.7 0.00 0.00 0.00 70 1013.9
20260905184157 77 274 5.2 8.7 0.00 0.00 0.00 70 1013.9
20260905184059 77 313 5.2 8.7 0.00 0.00 0.00 70 1013.9
20260905183953 77 325 5.2 9.6 0.00 0.00 0.00 69 1014.0
20260905183851 77 303 5.2 9.6 0.00 0.00 0.00 70 1013.9
20260905183751 77 329 5.2 9.6 0.00 0.00 0.00 70 1014.0
20260905183653 77 314 5.2 9.6 0.00 0.00 0.00 70 1014.0
20260905183552 77 306 5.2 9.6 0.00 0.00 0.00 71 1014.1
20260905183446 77 343 6.1 9.6 0.00 0.00 0.00 71 1014.2
20260905183347 77 322 6.1 10.4 0.00 0.00 0.00 70 1014.3
20260905183247 77 327 7.0 10.4 0.00 0.00 0.00 70 1014.5
20260905183145 77 279 7.0 13.0 0.00 0.00 0.00 70 1014.5
20260905183046 77 319 7.0 13.0 0.00 0.00 0.00 70 1014.5
20260905182937 77 325 7.0 13.0 0.00 0.00 0.00 69 1014.6
20260905182835 77 323 7.0 13.0 0.00 0.00 0.00 69 1014.4
20260905182736 77 329 7.8 13.0 0.00 0.00 0.00 69 1014.2
20260905182636 77 309 7.8 13.0 0.00 0.00 0.00 68 1014.2
20260905182536 77 289 7.8 13.0 0.00 0.00 0.00 68 1014.4
20260905182434 77 315 7.8 13.0 0.00 0.00 0.00 69 1014.6
20260905182333 77 298 7.8 13.0 0.00 0.00 0.00 68 1014.7
20260905182233 77 275 7.0 12.2 0.00 0.00 0.00 69 1014.8
20260905182134 77 288 7.0 11.3 0.00 0.00 0.00 68 1014.8
20260905182033 77 290 7.0 11.3 0.00 0.00 0.00 68 1014.8
20260905181935 78 288 7.0 11.3 0.00 0.00 0.00 67 1014.6
20260905181834 78 326 7.0 11.3 0.00 0.00 0.00 66 1014.4
20260905181733 78 298 6.1 11.3 0.00 0.00 0.00 67 1014.4
20260905181634 78 300 7.0 12.2 0.00 0.00 0.00 67 1014.4
20260905181534 78 327 6.1 12.2 0.00 0.00 0.00 66 1014.4
20260905181434 78 332 7.0 12.2 0.00 0.00 0.00 66 1014.5
20260905181335 78 302 7.0 13.9 0.00 0.00 0.00 67 1014.5
20260905181234 78 334 7.0 13.9 0.00 0.00 0.00 67 1014.6
20260905181134 78 311 7.0 13.9 0.00 0.00 0.00 68 1014.6
20260905181034 78 336 7.8 13.9 0.00 0.00 0.00 68 1014.7
20260905180936 78 333 7.8 13.9 0.00 0.00 0.00 67 1014.8
20260905180835 78 325 7.8 13.9 0.00 0.00 0.00 67 1014.9
20260905180735 78 292 7.8 13.9 0.00 0.00 0.00 67 1014.8
20260905180632 78 297 7.8 13.9 0.00 0.00 0.00 66 1014.7
20260905180532 78 315 7.8 13.9 0.00 0.00 0.00 66 1014.5
20260905180432 78 325 7.8 13.9 0.00 0.00 0.00 65 1014.4
20260905180331 78 327 8.7 13.0 0.00 0.00 0.00 66 1014.5
20260905180231 78 342 8.7 13.0 0.00 0.00 0.00 65 1014.7
20260905180131 78 331 8.7 13.0 0.00 0.00 0.00 65 1014.8
20260905180031 78 308 8.7 13.0 0.00 0.00 0.00 66 1015.0
20260905175932 79 331 8.7 13.0 0.00 0.00 0.00 65 1015.1
20260905175832 79 315 8.7 13.0 0.00 0.00 0.00 66 1015.3
20260905175733 79 329 8.7 13.0 0.00 0.00 0.00 65 1015.3
20260905175633 79 306 8.7 13.0 0.00 0.00 0.00 65 1015.4
20260905175531 79 345 8.7 13.0 0.00 0.00 0.00 65 1015.4
20260905175432 79 317 8.7 13.0 0.00 0.00 0.00 64 1015.5
20260905175332 79 334 8.7 16.5 0.00 0.00 0.00 64 1015.6
20260905175232 79 340 8.7 16.5 0.00 0.00 0.00 64 1015.8
20260905175131 79 333 9.6 16.5 0.00 0.00 0.00 65 1015.9
20260905175031 79 333 9.6 16.5 0.00 0.00 0.00 65 1016.0
20260905174931 79 292 9.6 16.5 0.00 0.00 0.00 65 1016.1
20260905174832 80 319 9.6 16.5 0.00 0.00 0.00 65 1016.0
20260905174733 80 338 9.6 16.5 0.00 0.00 0.00 65 1016.0
20260905174633 80 332 9.6 16.5 0.00 0.00 0.00 65 1016.0
20260905174533 80 324 9.6 16.5 0.00 0.00 0.00 65 1016.1
20260905174431 80 350 9.6 16.5 0.00 0.00 0.00 64 1016.1
20260905174333 80 330 9.6 16.5 0.00 0.00 0.00 65 1016.2
20260905174231 80 321 9.6 16.5 0.00 0.00 0.00 65 1016.2
20260905174132 80 315 9.6 16.5 0.00 0.00 0.00 65 1016.3
20260905174033 80 306 9.6 16.5 0.00 0.00 0.00 65 1016.4
20260905173929 80 332 10.4 18.2 0.00 0.00 0.00 66 1016.4
20260905173828 80 355 9.6 18.2 0.00 0.00 0.00 66 1016.4
20260905173727 80 328 10.4 18.2 0.00 0.00 0.00 68 1016.4
20260905173627 80 331 10.4 18.2 0.00 0.00 0.00 67 1016.4
20260905173527 80 309 11.3 18.2 0.00 0.00 0.00 68 1016.3
20260905173427 80 18 11.3 18.2 0.00 0.00 0.00 67 1016.3
20260905173327 81 313 12.2 18.2 0.00 0.00 0.00 67 1016.2
20260905173228 81 355 12.2 18.2 0.00 0.00 0.00 67 1016.2
20260905173129 81 307 12.2 20.0 0.00 0.00 0.00 66 1016.3
20260905173027 81 315 13.0 20.0 0.00 0.00 0.00 65 1016.2
20260905172928 81 332 13.0 20.0 0.00 0.00 0.00 68 1016.1
20260905172827 81 313 13.0 20.0 0.00 0.00 0.00 68 1016.1
20260905172727 81 299 13.0 20.0 0.00 0.00 0.00 68 1016.2
20260905172628 81 314 13.0 21.7 0.00 0.00 0.00 69 1016.1
20260905172528 81 322 13.9 23.5 0.00 0.00 0.00 68 1016.1
20260905172428 82 312 13.9 23.5 0.00 0.00 0.00 68 1015.9
20260905172328 82 306 13.9 23.5 0.00 0.00 0.00 68 1015.9
20260905172227 82 303 13.9 25.2 0.00 0.00 0.00 67 1016.0
20260905172127 83 327 13.0 25.2 0.00 0.00 0.00 69 1015.9
20260905172029 83 329 13.0 25.2 0.00 0.00 0.00 69 1016.0
20260905171927 84 297 13.0 25.2 0.00 0.00 0.00 70 1016.0
20260905171828 84 318 12.2 25.2 0.00 0.00 0.00 69 1015.9
20260905171729 85 314 11.3 25.2 0.00 0.00 0.00 67 1016.0
20260905171627 85 286 10.4 25.2 0.00 0.00 0.00 67 1016.0
20260905171529 85 312 10.4 25.2 0.00 0.00 0.00 66 1015.9
20260905171428 85 279 9.6 25.2 0.00 0.00 0.00 66 1015.9
20260905171320 85 278 9.6 25.2 0.00 0.00 0.00 66 1015.9
20260905171221 86 254 8.7 18.2 0.00 0.00 0.00 66 1015.8
20260905171120 86 342 8.7 18.2 0.00 0.00 0.00 65 1015.8
20260905171020 86 277 7.8 17.4 0.00 0.00 0.00 68 1015.9
20260905170919 86 331 7.8 13.9 0.00 0.00 0.00 69 1015.8
20260905170821 86 284 7.0 13.9 0.00 0.00 0.00 68 1015.8
20260905170719 86 243 7.0 13.9 0.00 0.00 0.00 67 1015.8
20260905170621 86 334 7.0 13.9 0.00 0.00 0.00 68 1015.8
20260905170519 86 293 7.0 13.9 0.00 0.00 0.00 67 1015.7
20260905170419 86 321 7.0 13.9 0.00 0.00 0.00 68 1015.8
20260905170319 86 286 6.1 12.2 0.00 0.00 0.00 68 1015.8
20260905170220 86 296 6.1 12.2 0.00 0.00 0.00 70 1015.9
20260905170121 86 336 6.1 12.2 0.00 0.00 0.00 70 1016.0
20260905170020 86 321 6.1 12.2 0.00 0.00 0.00 70 1016.0
20260905165919 86 299 6.1 12.2 0.00 0.00 0.00 70 1016.1
20260905165820 86 319 7.0 13.0 0.00 0.00 0.00 70 1016.1
20260905165719 86 309 6.1 13.0 0.00 0.00 0.00 70 1016.1
20260905165620 87 317 6.1 13.0 0.00 0.00 0.00 69 1016.2
20260905165519 87 331 5.2 13.0 0.00 0.00 0.00 69 1016.2
20260905165420 87 299 4.3 13.0 0.00 0.00 0.00 69 1016.3
20260905165321 87 286 3.5 13.0 0.00 0.00 0.00 68 1016.2
20260905165221 87 307 3.5 13.0 0.00 0.00 0.00 68 1016.3
20260905165119 87 329 2.6 13.0 0.00 0.00 0.00 67 1016.2
20260905165019 87 323 1.7 13.0 0.00 0.00 0.00 66 1016.3
20260905164920 87 291 0.9 13.0 0.00 0.00 0.00 68 1016.4
20260905164821 87 303 0.9 8.7 0.00 0.00 0.00 68 1016.3
20260905164719 87 308 0.0 0.0 0.00 0.00 0.00 67 1016.3
20260905164621 87 324 0.0 0.0 0.00 0.00 0.00 68 1016.3
20260905164519 87 339 0.0 0.0 0.00 0.00 0.00 68 1016.3
20260905164420 87 319 0.0 0.0 0.00 0.00 0.00 68 1016.3
20260905164319 87 279 0.0 0.0 0.00 0.00 0.00 69 1016.3
20260905164219 87 341 0.0 0.0 0.00 0.00 0.00 70 1016.3
20260905164121 87 331 0.0 0.0 0.00 0.00 0.00 68 1016.3
20260905164015 87 335 0.0 0.0 0.00 0.00 0.00 69 1016.2
20260905163917 87 315 0.0 0.0 0.00 0.00 0.00 69 1016.3
20260905163817 87 346 0.0 1.7 0.00 0.00 0.00 69 1016.3
20260905163715 87 333 0.0 2.6 0.00 0.00 0.00 68 1016.3
20260905163616 87 313 0.0 2.6 0.00 0.00 0.00 70 1016.2
20260905163515 87 316 0.0 2.6 0.00 0.00 0.00 70 1016.2
20260905163416 87 334 0.0 2.6 0.00 0.00 0.00 69 1016.2
20260905163317 87 317 0.0 2.6 0.00 0.00 0.00 70 1016.3
20260905163215 87 332 0.0 2.6 0.00 0.00 0.00 69 1016.3
20260905163115 87 277 0.0 2.6 0.00 0.00 0.00 71 1016.2
20260905163016 87 15 0.9 7.0 0.00 0.00 0.00 70 1016.2
20260905162915 87 329 0.9 8.7 0.00 0.00 0.00 68 1016.2
20260905162815 87 261 1.7 10.4 0.00 0.00 0.00 68 1016.2
20260905162715 87 261 2.6 10.4 0.00 0.00 0.00 68 1016.2
20260905162616 87 276 3.5 10.4 0.00 0.00 0.00 69 1016.3
20260905162516 87 294 3.5 10.4 0.00 0.00 0.00 69 1016.3
20260905162416 87 265 4.3 10.4 0.00 0.00 0.00 69 1016.4
20260905162316 87 329 5.2 10.4 0.00 0.00 0.00 68 1016.3
20260905162215 87 294 5.2 10.4 0.00 0.00 0.00 69 1016.3
20260905162116 87 286 5.2 10.4 0.00 0.00 0.00 69 1016.3
20260905162015 87 331 5.2 10.4 0.00 0.00 0.00 67 1016.2
20260905161915 87 298 5.2 10.4 0.00 0.00 0.00 67 1016.3
20260905161816 87 304 5.2 9.6 0.00 0.00 0.00 69 1016.3
20260905161715 87 305 5.2 9.6 0.00 0.00 0.00 69 1016.2
20260905161615 87 321 4.3 9.6 0.00 0.00 0.00 69 1016.3
20260905161516 87 318 4.3 9.6 0.00 0.00 0.00 71 1016.3
20260905161416 87 319 3.5 7.8 0.00 0.00 0.00 69 1016.3
20260905161316 87 300 3.5 7.8 0.00 0.00 0.00 70 1016.3
20260905161215 87 323 3.5 7.8 0.00 0.00 0.00 70 1016.3
20260905161116 87 329 3.5 7.8 0.00 0.00 0.00 70 1016.2
20260905161016 87 336 2.6 7.8 0.00 0.00 0.00 71 1016.3
20260905160915 87 342 3.5 7.8 0.00 0.00 0.00 70 1016.3
20260905160816 87 348 2.6 7.0 0.00 0.00 0.00 71 1016.4
20260905160712 87 310 2.6 7.0 0.00 0.00 0.00 71 1016.3
20260905160611 87 5 1.7 6.1 0.00 0.00 0.00 70 1016.3
20260905160511 87 36 1.7 6.1 0.00 0.00 0.00 69 1016.3
20260905160411 86 261 1.7 7.0 0.00 0.00 0.00 70 1016.3
20260905160313 86 5 1.7 7.0 0.00 0.00 0.00 71 1016.3
20260905160209 86 5 1.7 7.0 0.00 0.00 0.00 71 1016.3
20260905160110 86 344 1.7 7.0 0.00 0.00 0.00 71 1016.3
20260905160010 86 349 1.7 7.0 0.00 0.00 0.00 70 1016.4
20260905155909 86 335 1.7 7.8 0.00 0.00 0.00 70 1016.4
20260905155810 86 329 1.7 8.7 0.00 0.00 0.00 71 1016.4
20260905155711 86 296 1.7 8.7 0.00 0.00 0.00 70 1016.4
20260905155610 86 322 1.7 8.7 0.00 0.00 0.00 70 1016.4
20260905155502 86 319 1.7 8.7 0.00 0.00 0.00 71 1016.4
20260905155400 86 306 1.7 8.7 0.00 0.00 0.00 69 1016.3
20260905155301 86 307 0.9 8.7 0.00 0.00 0.00 69 1016.3
20260905155158 86 305 0.9 8.7 0.00 0.00 0.00 69 1016.4
20260905155059 86 304 0.9 8.7 0.00 0.00 0.00 70 1016.5
20260905154957 86 308 0.9 8.7 0.00 0.00 0.00 70 1016.5
20260905154853 86 296 0.0 8.7 0.00 0.00 0.00 71 1016.4
20260905154753 86 315 0.0 5.2 0.00 0.00 0.00 69 1016.5
20260905154652 86 325 0.0 0.0 0.00 0.00 0.00 71 1016.6
20260905154551 86 309 0.0 0.0 0.00 0.00 0.00 69 1016.5
20260905154446 86 355 0.0 0.0 0.00 0.00 0.00 69 1016.5
20260905154347 86 312 0.0 0.0 0.00 0.00 0.00 70 1016.5
20260905154246 86 311 0.0 0.0 0.00 0.00 0.00 70 1016.5
20260905154147 86 338 0.0 0.0 0.00 0.00 0.00 70 1016.5
20260905154043 86 332 0.0 0.0 0.00 0.00 0.00 70 1016.4
20260905153933 86 314 0.0 0.0 0.00 0.00 0.00 70 1016.5
20260905153833 86 347 0.0 0.0 0.00 0.00 0.00 71 1016.5
20260905153735 86 308 0.0 0.0 0.00 0.00 0.00 70 1016.4
20260905153635 86 288 0.0 0.0 0.00 0.00 0.00 70 1016.4
20260905153534 86 330 0.0 0.0 0.00 0.00 0.00 69 1016.5
20260905153427 86 273 0.0 0.0 0.00 0.00 0.00 69 1016.5
20260905153325 86 293 0.0 0.0 0.00 0.00 0.00 69 1016.4
20260905153225 87 312 0.0 0.0 0.00 0.00 0.00 71 1016.4
20260905153126 87 328 0.0 0.0 0.00 0.00 0.00 71 1016.4
20260905153026 86 333 0.0 0.0 0.00 0.00 0.00 69 1016.4
20260905152920 87 317 0.0 0.0 0.00 0.00 0.00 69 1016.4
20260905152820 87 315 0.0 0.0 0.00 0.00 0.00 71 1016.3
20260905152720 87 311 0.0 0.0 0.00 0.00 0.00 70 1016.4
20260905152621 87 317 0.0 0.0 0.00 0.00 0.00 69 1016.4
20260905152520 87 0 0.0 0.0 0.00 0.00 0.00 70 1016.3
20260905152411 87 10 0.0 0.0 0.00 0.00 0.00 71 1016.4
20260905152310 87 9 0.0 0.0 0.00 0.00 0.00 70 1016.4
20260905152211 87 9 0.0 0.0 0.00 0.00 0.00 69 1016.3
20260905152110 87 11 0.0 0.0 0.00 0.00 0.00 70 1016.3
20260905152010 86 319 0.0 0.0 0.00 0.00 0.00 70 1016.3
20260905151905 86 317 0.0 0.0 0.00 0.00 0.00 70 1016.3
20260905151804 86 317 0.0 0.0 0.00 0.00 0.00 69 1016.3
20260905151704 86 0 0.0 0.0 0.00 0.00 0.00 69 1016.3
20260905151603 86 313 0.0 0.0 0.00 0.00 0.00 71 1016.3
20260905151505 86 348 0.0 0.0 0.00 0.00 0.00 70 1016.3
20260905151403 86 350 0.0 0.0 0.00 0.00 0.00 71 1016.2
20260905151302 86 350 0.0 0.0 0.00 0.00 0.00 71 1016.2
20260905151201 86 350 0.0 0.0 0.00 0.00 0.00 71 1016.2
20260905151100 86 350 0.0 0.0 0.00 0.00 0.00 70 1016.2
20260905150958 86 325 0.0 0.0 0.00 0.00 0.00 68 1016.2
20260905150852 86 334 0.0 0.0 0.00 0.00 0.00 70 1016.2
20260905150752 86 338 0.0 0.0 0.00 0.00 0.00 70 1016.2
20260905150653 86 337 0.0 0.0 0.00 0.00 0.00 72 1016.2
20260905150550 86 338 0.0 0.0 0.00 0.00 0.00 70 1016.2
20260905150448 86 333 0.0 0.0 0.00 0.00 0.00 72 1016.2
20260905150344 86 333 0.0 0.0 0.00 0.00 0.00 72 1016.3
20260905150241 86 333 0.0 0.0 0.00 0.00 0.00 70 1016.2
20260905150143 86 309 0.0 0.0 0.00 0.00 0.00 71 1016.2
20260905150041 86 321 0.0 0.0 0.00 0.00 0.00 72 1016.2
20260905145941 86 338 0.0 0.0 0.00 0.00 0.00 71 1016.2
20260905145839 86 337 0.0 0.0 0.00 0.00 0.00 71 1016.2
20260905145741 86 306 0.0 0.0 0.00 0.00 0.00 72 1016.2
20260905145639 86 338 0.0 3.5 0.00 0.00 0.00 73 1016.2
20260905145537 86 338 0.0 3.5 0.00 0.00 0.00 71 1016.2
20260905145436 86 338 0.0 3.5 0.00 0.00 0.00 72 1016.2
20260905145329 86 338 0.0 3.5 0.00 0.00 0.00 72 1016.3
20260905145225 86 314 0.0 3.5 0.00 0.00 0.00 70 1016.3
20260905145125 86 280 0.0 3.5 0.00 0.00 0.00 72 1016.2
20260905145026 86 310 0.0 3.5 0.00 0.00 0.00 71 1016.2
20260905144926 86 306 0.0 3.5 0.00 0.00 0.00 71 1016.2
20260905144825 86 327 0.0 3.5 0.00 0.00 0.00 71 1016.3
20260905144724 86 259 0.0 3.5 0.00 0.00 0.00 73 1016.3
20260905144621 86 319 0.0 2.6 0.00 0.00 0.00 74 1016.4
20260905144522 86 319 0.0 0.0 0.00 0.00 0.00 73 1016.4
20260905144420 86 316 0.0 0.0 0.00 0.00 0.00 70 1016.3
20260905144319 86 317 0.0 0.0 0.00 0.00 0.00 71 1016.3
20260905144217 86 315 0.0 0.0 0.00 0.00 0.00 71 1016.3
20260905144115 86 290 0.0 0.0 0.00 0.00 0.00 71 1016.4
20260905144016 86 326 0.0 0.0 0.00 0.00 0.00 72 1016.3
20260905143913 86 326 0.0 0.0 0.00 0.00 0.00 72 1016.4
20260905143804 86 326 0.0 0.0 0.00 0.00 0.00 72 1016.4
20260905143704 86 325 0.0 0.0 0.00 0.00 0.00 71 1016.3
20260905143603 86 325 0.0 0.0 0.00 0.00 0.00 70 1016.3
20260905143503 86 326 0.0 0.0 0.00 0.00 0.00 70 1016.4
20260905143403 86 326 0.0 0.0 0.00 0.00 0.00 70 1016.5
20260905143259 86 325 0.0 0.0 0.00 0.00 0.00 73 1016.4
20260905143157 86 275 0.0 0.0 0.00 0.00 0.00 72 1016.5
20260905143057 86 273 0.0 0.0 0.00 0.00 0.00 70 1016.4
20260905142958 86 273 0.0 0.0 0.00 0.00 0.00 71 1016.5
20260905142858 86 271 0.0 0.0 0.00 0.00 0.00 69 1016.4
20260905142757 86 270 0.0 0.0 0.00 0.00 0.00 71 1016.5
20260905142656 86 270 0.0 0.0 0.00 0.00 0.00 71 1016.4
20260905142553 86 269 0.0 0.0 0.00 0.00 0.00 71 1016.4
20260905142453 86 267 0.0 0.0 0.00 0.00 0.00 70 1016.4
20260905142351 86 267 0.0 0.0 0.00 0.00 0.00 71 1016.3
20260905142245 86 267 0.0 0.0 0.00 0.00 0.00 72 1016.4
20260905142146 86 271 0.0 0.0 0.00 0.00 0.00 70 1016.3
20260905142045 86 240 0.0 0.0 0.00 0.00 0.00 71 1016.3
20260905141944 85 161 0.0 0.0 0.00 0.00 0.00 70 1016.3
20260905141842 86 290 0.0 0.0 0.00 0.00 0.00 70 1016.3
20260905141738 85 290 0.0 0.0 0.00 0.00 0.00 70 1016.3
20260905141635 85 290 0.0 0.0 0.00 0.00 0.00 70 1016.3
20260905141536 85 290 0.0 0.0 0.00 0.00 0.00 69 1016.3
20260905141435 86 312 0.0 0.0 0.00 0.00 0.00 69 1016.3
20260905141336 85 288 0.0 0.0 0.00 0.00 0.00 70 1016.2
20260905141231 85 288 0.0 0.0 0.00 0.00 0.00 70 1016.3
20260905141129 86 279 0.0 0.0 0.00 0.00 0.00 70 1016.3
20260905141030 85 279 0.0 0.0 0.00 0.00 0.00 71 1016.3
20260905140929 85 278 0.0 0.0 0.00 0.00 0.00 69 1016.2
20260905140830 85 278 0.0 0.0 0.00 0.00 0.00 71 1016.2
20260905140724 85 278 0.0 0.0 0.00 0.00 0.00 69 1016.2
20260905140624 85 275 0.0 0.0 0.00 0.00 0.00 69 1016.3
20260905140524 85 275 0.0 0.0 0.00 0.00 0.00 70 1016.3
20260905140421 85 274 0.0 0.0 0.00 0.00 0.00 72 1016.2
20260905140320 85 274 0.0 0.0 0.00 0.00 0.00 70 1016.2
20260905140220 85 274 0.0 0.0 0.00 0.00 0.00 69 1016.2
20260905140119 85 274 0.0 0.0 0.00 0.00 0.00 69 1016.2
20260905140015 85 273 0.0 0.0 0.00 0.00 0.00 70 1016.3
20260905135915 85 273 0.0 0.0 0.00 0.00 0.00 71 1016.2
20260905135813 85 273 0.0 0.0 0.00 0.00 0.00 72 1016.2
20260905135713 85 273 0.0 0.0 0.00 0.00 0.00 70 1016.2
20260905135613 85 273 0.0 0.0 0.00 0.00 0.00 70 1016.2
20260905135509 85 273 0.0 0.0 0.00 0.00 0.00 70 1016.2
20260905135410 85 273 0.0 0.0 0.00 0.00 0.00 69 1016.2
20260905135308 85 326 0.0 0.0 0.00 0.00 0.00 71 1016.2
20260905135201 85 326 0.0 0.0 0.00 0.00 0.00 70 1016.2
20260905135101 85 326 0.0 0.0 0.00 0.00 0.00 70 1016.2
20260905135002 84 326 0.0 0.0 0.00 0.00 0.00 70 1016.2
20260905134859 84 326 0.0 0.0 0.00 0.00 0.00 70 1016.2
20260905134757 84 326 0.0 0.0 0.00 0.00 0.00 71 1016.3
20260905134658 84 326 0.0 0.0 0.00 0.00 0.00 73 1016.2
20260905134557 84 326 0.0 0.0 0.00 0.00 0.00 72 1016.2
20260905134453 84 326 0.0 0.0 0.00 0.00 0.00 72 1016.3
20260905134353 84 323 0.0 0.0 0.00 0.00 0.00 70 1016.2
20260905134251 84 321 0.0 0.0 0.00 0.00 0.00 72 1016.3
20260905134151 84 319 0.0 0.0 0.00 0.00 0.00 72 1016.2
20260905134049 84 303 0.0 0.0 0.00 0.00 0.00 72 1016.3
20260905133947 84 302 0.0 0.0 0.00 0.00 0.00 70 1016.3
20260905133847 84 302 0.0 0.0 0.00 0.00 0.00 70 1016.3
20260905133746 84 304 0.0 0.0 0.00 0.00 0.00 72 1016.3
20260905133639 84 297 0.0 0.0 0.00 0.00 0.00 71 1016.4
20260905133539 84 296 0.0 0.0 0.00 0.00 0.00 73 1016.4
20260905133439 84 295 0.0 0.0 0.00 0.00 0.00 72 1016.4
20260905133337 84 295 0.0 0.0 0.00 0.00 0.00 73 1016.3
20260905133236 84 295 0.0 0.0 0.00 0.00 0.00 71 1016.4
20260905133133 84 295 0.0 0.0 0.00 0.00 0.00 72 1016.4
20260905133034 84 295 0.0 0.0 0.00 0.00 0.00 72 1016.4
20260905132934 84 296 0.0 0.0 0.00 0.00 0.00 72 1016.4
20260905132832 84 296 0.0 0.0 0.00 0.00 0.00 72 1016.4
20260905132730 84 296 0.0 0.0 0.00 0.00 0.00 73 1016.3
20260905132629 83 296 0.0 0.0 0.00 0.00 0.00 72 1016.4
20260905132527 83 296 0.0 0.0 0.00 0.00 0.00 72 1016.4
20260905132425 83 296 0.0 0.0 0.00 0.00 0.00 73 1016.3
20260905132326 83 296 0.0 0.0 0.00 0.00 0.00 72 1016.3
20260905132224 83 295 0.0 0.0 0.00 0.00 0.00 73 1016.4
20260905132118 83 295 0.0 0.0 0.00 0.00 0.00 74 1016.4
20260905132018 83 294 0.0 0.0 0.00 0.00 0.00 75 1016.3
20260905131915 83 294 0.0 0.0 0.00 0.00 0.00 75 1016.4
20260905131816 83 294 0.0 0.0 0.00 0.00 0.00 74 1016.3
20260905131713 83 294 0.0 0.0 0.00 0.00 0.00 74 1016.4
20260905131610 83 294 0.0 0.0 0.00 0.00 0.00 73 1016.4
20260905131508 83 294 0.0 0.0 0.00 0.00 0.00 73 1016.4
20260905131407 83 294 0.0 0.0 0.00 0.00 0.00 73 1016.4
20260905131309 83 294 0.0 0.0 0.00 0.00 0.00 74 1016.4
20260905131208 83 294 0.0 0.0 0.00 0.00 0.00 74 1016.4
20260905131103 83 294 0.0 0.0 0.00 0.00 0.00 75 1016.4
20260905131005 83 293 0.0 0.0 0.00 0.00 0.00 75 1016.4
20260905130903 83 293 0.0 0.0 0.00 0.00 0.00 75 1016.5
20260905130802 82 293 0.0 0.0 0.00 0.00 0.00 75 1016.4
20260905130701 82 293 0.0 0.0 0.00 0.00 0.00 74 1016.4
20260905130556 82 292 0.0 0.0 0.00 0.00 0.00 74 1016.4
20260905130455 82 292 0.0 0.0 0.00 0.00 0.00 75 1016.5
20260905130355 82 331 0.0 0.0 0.00 0.00 0.00 76 1016.4
20260905130253 82 331 0.0 0.0 0.00 0.00 0.00 74 1016.4
20260905130151 82 335 0.0 0.0 0.00 0.00 0.00 75 1016.5
20260905130052 82 336 0.0 0.0 0.00 0.00 0.00 75 1016.5
20260905125948 82 288 0.0 0.0 0.00 0.00 0.00 76 1016.5
20260905125848 82 321 0.0 0.0 0.00 0.00 0.00 75 1016.4
20260905125748 82 321 0.0 0.0 0.00 0.00 0.00 76 1016.5
20260905125645 82 321 0.0 0.0 0.00 0.00 0.00 76 1016.4
20260905125542 82 321 0.0 0.0 0.00 0.00 0.00 74 1016.4
20260905125439 82 292 0.0 0.0 0.00 0.00 0.00 75 1016.4
20260905125340 82 292 0.0 0.0 0.00 0.00 0.00 73 1016.5
20260905125238 82 292 0.0 0.0 0.00 0.00 0.00 75 1016.5
20260905125140 82 292 0.0 0.0 0.00 0.00 0.00 75 1016.4
20260905125032 82 292 0.0 0.9 0.00 0.00 0.00 74 1016.4
20260905124933 81 292 0.0 3.5 0.00 0.00 0.00 74 1016.5
20260905124831 81 321 0.0 3.5 0.00 0.00 0.00 75 1016.5
20260905124732 81 295 0.9 3.5 0.00 0.00 0.00 75 1016.5
20260905124630 81 295 0.9 3.5 0.00 0.00 0.00 75 1016.5
20260905124529 81 320 0.9 3.5 0.00 0.00 0.00 75 1016.5
20260905124427 81 324 0.9 3.5 0.00 0.00 0.00 75 1016.5
20260905124326 81 268 0.9 3.5 0.00 0.00 0.00 74 1016.5
20260905124225 81 268 0.9 3.5 0.00 0.00 0.00 75 1016.5
20260905124124 81 304 1.7 3.5 0.00 0.00 0.00 74 1016.5
20260905124018 81 304 1.7 3.5 0.00 0.00 0.00 75 1016.4
20260905123917 81 284 1.7 4.3 0.00 0.00 0.00 75 1016.4
20260905123819 81 284 1.7 6.1 0.00 0.00 0.00 75 1016.4
20260905123717 81 288 1.7 6.1 0.00 0.00 0.00 76 1016.5
20260905123618 81 295 2.6 6.1 0.00 0.00 0.00 76 1016.4
20260905123508 81 295 2.6 6.1 0.00 0.00 0.00 75 1016.4
20260905123409 81 295 2.6 6.1 0.00 0.00 0.00 75 1016.4
20260905123308 81 306 2.6 6.1 0.00 0.00 0.00 76 1016.5
20260905123207 81 307 3.5 6.1 0.00 0.00 0.00 75 1016.5
20260905123107 81 308 3.5 6.1 0.00 0.00 0.00 75 1016.4
20260905123005 81 302 3.5 6.1 0.00 0.00 0.00 75 1016.3
20260905122901 80 302 3.5 6.1 0.00 0.00 0.00 76 1016.4
20260905122801 80 302 3.5 4.3 0.00 0.00 0.00 76 1016.4
20260905122703 80 302 3.5 4.3 0.00 0.00 0.00 75 1016.3
20260905122602 80 290 3.5 4.3 0.00 0.00 0.00 75 1016.4
20260905122459 80 316 2.6 4.3 0.00 0.00 0.00 74 1016.4
20260905122359 80 308 2.6 4.3 0.00 0.00 0.00 75 1016.4
20260905122259 80 299 2.6 4.3 0.00 0.00 0.00 75 1016.5
20260905122158 80 299 2.6 5.2 0.00 0.00 0.00 76 1016.4
20260905122056 80 299 1.7 5.2 0.00 0.00 0.00 75 1016.5
20260905121949 80 298 1.7 5.2 0.00 0.00 0.00 76 1016.4
20260905121850 80 298 1.7 5.2 0.00 0.00 0.00 75 1016.5
20260905121748 80 298 1.7 5.2 0.00 0.00 0.00 75 1016.5
20260905121647 80 295 1.7 5.2 0.00 0.00 0.00 75 1016.4
20260905121546 80 295 1.7 6.1 0.00 0.00 0.00 75 1016.5
20260905121440 80 306 1.7 6.1 0.00 0.00 0.00 75 1016.5
20260905121339 80 315 2.6 6.1 0.00 0.00 0.00 76 1016.5
20260905121240 80 324 2.6 6.1 0.00 0.00 0.00 75 1016.4
20260905121140 80 315 2.6 7.0 0.00 0.00 0.00 75 1016.5
20260905121040 80 319 3.5 7.0 0.00 0.00 0.00 76 1016.4
20260905120936 80 325 3.5 7.0 0.00 0.00 0.00 76 1016.4
20260905120836 80 328 3.5 7.0 0.00 0.00 0.00 75 1016.3
20260905120734 80 294 3.5 7.0 0.00 0.00 0.00 76 1016.3
20260905120635 79 308 3.5 7.0 0.00 0.00 0.00 76 1016.4
20260905120533 79 311 3.5 7.0 0.00 0.00 0.00 76 1016.4
20260905120426 79 306 3.5 7.0 0.00 0.00 0.00 76 1016.5
20260905120324 79 288 3.5 7.0 0.00 0.00 0.00 77 1016.4
20260905120223 79 282 3.5 7.0 0.00 0.00 0.00 76 1016.5
20260905120123 79 306 2.6 7.0 0.00 0.00 0.00 77 1016.4
20260905120023 79 302 2.6 4.3 0.00 0.00 0.00 77 1016.5
20260905115921 79 301 2.6 4.3 0.00 0.00 0.00 77 1016.4
20260905115822 78 301 2.6 4.3 0.00 0.00 0.00 78 1016.5
20260905115719 78 303 2.6 4.3 0.00 0.00 0.00 78 1016.4
20260905115620 78 303 1.7 4.3 0.00 0.00 0.00 77 1016.3
20260905115517 78 298 1.7 4.3 0.00 0.00 0.00 78 1016.2
20260905115415 78 298 1.7 4.3 0.00 0.00 0.00 78 1016.3
20260905115314 78 293 1.7 4.3 0.00 0.00 0.00 78 1016.3
20260905115215 78 293 0.9 4.3 0.00 0.00 0.00 78 1016.3
20260905115114 78 280 0.9 3.5 0.00 0.00 0.00 78 1016.3
20260905115011 78 280 0.0 3.5 0.00 0.00 0.00 78 1016.3
20260905114906 78 255 0.0 2.6 0.00 0.00 0.00 79 1016.3
20260905114806 78 255 0.0 1.7 0.00 0.00 0.00 79 1016.3
20260905114704 78 255 0.0 1.7 0.00 0.00 0.00 79 1016.3
20260905114604 78 254 0.0 1.7 0.00 0.00 0.00 79 1016.2
20260905114502 77 254 0.0 1.7 0.00 0.00 0.00 79 1016.2
20260905114359 77 254 0.0 1.7 0.00 0.00 0.00 79 1016.2
20260905114300 77 267 0.0 0.0 0.00 0.00 0.00 79 1016.2
20260905114200 77 267 0.0 0.0 0.00 0.00 0.00 79 1016.2
20260905114058 77 267 0.0 0.0 0.00 0.00 0.00 80 1016.1
20260905113956 77 271 0.0 0.0 0.00 0.00 0.00 80 1016.1
20260905113855 77 271 0.0 0.0 0.00 0.00 0.00 80 1016.1
20260905113754 77 271 0.0 0.0 0.00 0.00 0.00 80 1016.2
20260905113651 77 271 0.0 0.0 0.00 0.00 0.00 80 1016.1
20260905113552 77 271 0.0 0.0 0.00 0.00 0.00 80 1016.2
20260905113450 77 271 0.0 0.0 0.00 0.00 0.00 80 1016.1
20260905113345 77 271 0.0 0.0 0.00 0.00 0.00 80 1016.1
20260905113245 77 271 0.0 0.0 0.00 0.00 0.00 81 1016.1
20260905113141 77 271 0.0 0.0 0.00 0.00 0.00 81 1016.0
20260905113040 77 271 0.0 0.0 0.00 0.00 0.00 80 1016.0
20260905112940 77 271 0.0 0.0 0.00 0.00 0.00 80 1016.0
20260905112839 77 271 0.0 0.0 0.00 0.00 0.00 80 1016.0
20260905112738 77 271 0.0 0.0 0.00 0.00 0.00 80 1016.0
20260905112638 77 271 0.0 0.0 0.00 0.00 0.00 80 1015.9
20260905112536 77 271 0.0 0.0 0.00 0.00 0.00 80 1016.0
20260905112434 77 271 0.0 0.0 0.00 0.00 0.00 81 1016.0
20260905112330 76 271 0.0 0.0 0.00 0.00 0.00 81 1015.9
20260905112230 76 271 0.0 0.0 0.00 0.00 0.00 81 1015.9
20260905112128 76 271 0.0 0.0 0.00 0.00 0.00 81 1015.8
20260905112030 76 271 0.0 0.0 0.00 0.00 0.00 81 1015.8
20260905111928 76 271 0.0 0.0 0.00 0.00 0.00 81 1015.9
20260905111819 76 271 0.0 0.0 0.00 0.00 0.00 80 1015.9
20260905111717 76 271 0.0 0.0 0.00 0.00 0.00 80 1015.8
20260905111617 76 271 0.0 0.0 0.00 0.00 0.00 81 1015.8
20260905111518 76 271 0.0 0.0 0.00 0.00 0.00 81 1015.8
20260905111418 76 271 0.0 0.0 0.00 0.00 0.00 81 1015.9
20260905111313 76 271 0.0 0.0 0.00 0.00 0.00 81 1015.8
20260905111211 76 271 0.0 0.0 0.00 0.00 0.00 81 1015.8
20260905111112 77 271 0.0 0.0 0.00 0.00 0.00 81 1015.8
20260905111010 76 271 0.0 0.0 0.00 0.00 0.00 80 1015.9
20260905110911 77 271 0.0 0.0 0.00 0.00 0.00 80 1015.9
20260905110806 77 271 0.0 0.0 0.00 0.00 0.00 80 1015.9
20260905110706 77 271 0.0 0.0 0.00 0.00 0.00 80 1015.8
20260905110606 77 271 0.0 0.0 0.00 0.00 0.00 80 1015.9
20260905110505 77 271 0.0 0.0 0.00 0.00 0.00 80 1015.9
20260905110406 77 271 0.0 0.0 0.00 0.00 0.00 80 1015.7
20260905110257 77 271 0.0 0.0 0.00 0.00 0.00 80 1015.7
20260905110155 77 271 0.0 0.0 0.00 0.00 0.00 80 1015.7
20260905110054 77 271 0.0 0.0 0.00 0.00 0.00 80 1015.7
20260905105956 77 271 0.0 0.0 0.00 0.00 0.00 80 1015.7
20260905105856 77 271 0.0 0.0 0.00 0.00 0.00 80 1015.7
20260905105754 77 271 0.0 0.0 0.00 0.00 0.00 80 1015.6
20260905105654 77 271 0.0 0.0 0.00 0.00 0.00 80 1015.6
20260905105553 77 271 0.0 0.0 0.00 0.00 0.00 80 1015.7
20260905105451 77 272 0.0 0.0 0.00 0.00 0.00 80 1015.6
20260905105350 77 272 0.0 0.0 0.00 0.00 0.00 80 1015.6
20260905105250 77 272 0.0 0.0 0.00 0.00 0.00 79 1015.6
20260905105147 77 272 0.0 0.0 0.00 0.00 0.00 79 1015.6
20260905105047 77 272 0.0 0.0 0.00 0.00 0.00 79 1015.6
20260905104945 77 272 0.0 0.0 0.00 0.00 0.00 79 1015.7
20260905104844 77 272 0.0 0.0 0.00 0.00 0.00 79 1015.7
20260905104738 77 272 0.0 0.0 0.00 0.00 0.00 79 1015.6
20260905104637 77 272 0.0 0.0 0.00 0.00 0.00 79 1015.6
20260905104538 77 272 0.0 0.0 0.00 0.00 0.00 79 1015.6
20260905104436 77 272 0.0 0.0 0.00 0.00 0.00 79 1015.6
20260905104333 77 272 0.0 0.0 0.00 0.00 0.00 79 1015.6
20260905104235 77 272 0.0 0.0 0.00 0.00 0.00 79 1015.6
20260905104131 77 272 0.0 0.0 0.00 0.00 0.00 79 1015.6
20260905104031 77 272 0.0 0.0 0.00 0.00 0.00 78 1015.6
20260905103930 77 272 0.0 0.0 0.00 0.00 0.00 79 1015.6
20260905103828 77 272 0.0 0.0 0.00 0.00 0.00 78 1015.5
20260905103728 77 272 0.0 0.0 0.00 0.00 0.00 78 1015.5
20260905103626 77 272 0.0 0.0 0.00 0.00 0.00 78 1015.5
20260905103524 77 272 0.0 0.0 0.00 0.00 0.00 78 1015.6
20260905103424 77 272 0.0 0.0 0.00 0.00 0.00 78 1015.6
20260905103322 77 272 0.0 0.0 0.00 0.00 0.00 78 1015.6
20260905103216 77 272 0.0 0.0 0.00 0.00 0.00 78 1015.6
20260905103115 77 272 0.0 0.0 0.00 0.00 0.00 78 1015.5
20260905103015 77 272 0.0 0.0 0.00 0.00 0.00 78 1015.6
20260905102913 77 272 0.0 0.0 0.00 0.00 0.00 78 1015.5
20260905102811 77 272 0.0 0.0 0.00 0.00 0.00 78 1015.6
20260905102705 77 271 0.0 0.0 0.00 0.00 0.00 78 1015.5
20260905102605 77 271 0.0 0.0 0.00 0.00 0.00 78 1015.6
20260905102505 77 271 0.0 0.0 0.00 0.00 0.00 78 1015.6
20260905102404 77 271 0.0 0.0 0.00 0.00 0.00 78 1015.6
20260905102306 77 271 0.0 0.0 0.00 0.00 0.00 78 1015.6
20260905102202 77 271 0.0 0.0 0.00 0.00 0.00 78 1015.6
20260905102102 77 271 0.0 0.0 0.00 0.00 0.00 78 1015.7
20260905102003 77 270 0.0 0.0 0.00 0.00 0.00 78 1015.7
20260905101902 77 271 0.0 0.0 0.00 0.00 0.00 78 1015.6
20260905101800 77 271 0.0 0.0 0.00 0.00 0.00 78 1015.7
20260905101654 77 271 0.0 0.0 0.00 0.00 0.00 78 1015.6
20260905101553 77 271 0.0 0.0 0.00 0.00 0.00 78 1015.6
20260905101454 77 271 0.0 0.0 0.00 0.00 0.00 78 1015.6
20260905101353 77 271 0.0 0.0 0.00 0.00 0.00 78 1015.6
20260905101249 77 271 0.0 0.0 0.00 0.00 0.00 78 1015.6
20260905101150 77 271 0.0 0.0 0.00 0.00 0.00 78 1015.6
20260905101047 77 271 0.0 0.0 0.00 0.00 0.00 78 1015.6
20260905100948 77 270 0.0 0.0 0.00 0.00 0.00 78 1015.6
20260905100846 77 270 0.0 0.0 0.00 0.00 0.00 78 1015.6
20260905100744 77 270 0.0 0.0 0.00 0.00 0.00 78 1015.5
20260905100638 77 293 0.0 0.0 0.00 0.00 0.00 78 1015.6
20260905100540 77 294 0.0 0.0 0.00 0.00 0.00 78 1015.5
20260905100439 77 259 0.0 0.0 0.00 0.00 0.00 78 1015.6
20260905100339 77 272 0.0 0.0 0.00 0.00 0.00 78 1015.5
20260905100237 77 272 0.0 0.0 0.00 0.00 0.00 78 1015.6
20260905100132 77 274 0.0 0.0 0.00 0.00 0.00 78 1015.5
20260905100031 77 274 0.0 0.0 0.00 0.00 0.00 78 1015.5
20260905095932 77 274 0.0 0.0 0.00 0.00 0.00 79 1015.5
20260905095830 77 274 0.0 0.0 0.00 0.00 0.00 78 1015.5
20260905095728 77 274 0.0 0.0 0.00 0.00 0.00 78 1015.5
20260905095627 77 275 0.0 0.0 0.00 0.00 0.00 79 1015.5
20260905095525 77 274 0.0 0.0 0.00 0.00 0.00 79 1015.4
20260905095426 77 275 0.0 0.0 0.00 0.00 0.00 79 1015.5
20260905095324 77 275 0.0 0.0 0.00 0.00 0.00 79 1015.5
20260905095222 77 275 0.0 0.0 0.00 0.00 0.00 79 1015.5
20260905095122 77 275 0.0 0.0 0.00 0.00 0.00 79 1015.5
20260905095019 77 275 0.0 0.0 0.00 0.00 0.00 79 1015.4
20260905094919 77 275 0.0 0.0 0.00 0.00 0.00 79 1015.4
20260905094817 77 274 0.0 0.0 0.00 0.00 0.00 79 1015.5
20260905094716 77 274 0.0 0.0 0.00 0.00 0.00 79 1015.4
20260905094604 77 274 0.0 0.0 0.00 0.00 0.00 79 1015.5
20260905094504 77 274 0.0 0.0 0.00 0.00 0.00 79 1015.4
20260905094405 77 274 0.0 0.0 0.00 0.00 0.00 79 1015.5
20260905094305 77 281 0.0 0.0 0.00 0.00 0.00 79 1015.5
20260905094205 77 281 0.0 0.0 0.00 0.00 0.00 79 1015.3
20260905094102 77 279 0.0 0.0 0.00 0.00 0.00 79 1015.4
20260905094000 77 279 0.0 0.0 0.00 0.00 0.00 79 1015.3
20260905093902 77 279 0.0 0.0 0.00 0.00 0.00 80 1015.3
20260905093801 77 280 0.0 0.0 0.00 0.00 0.00 80 1015.3
20260905093700 77 280 0.0 0.0 0.00 0.00 0.00 80 1015.4
20260905093559 77 280 0.0 0.0 0.00 0.00 0.00 80 1015.4
20260905093458 77 280 0.0 0.0 0.00 0.00 0.00 80 1015.3
20260905093357 77 280 0.0 0.0 0.00 0.00 0.00 80 1015.3
20260905093255 77 280 0.0 0.0 0.00 0.00 0.00 80 1015.3
20260905093154 77 280 0.0 0.0 0.00 0.00 0.00 80 1015.4
20260905093047 77 280 0.0 0.0 0.00 0.00 0.00 80 1015.4
20260905092947 77 280 0.0 0.0 0.00 0.00 0.00 80 1015.3
20260905092848 77 280 0.0 0.0 0.00 0.00 0.00 80 1015.3
20260905092745 77 280 0.0 0.0 0.00 0.00 0.00 80 1015.3
20260905092643 77 280 0.0 0.0 0.00 0.00 0.00 80 1015.3
20260905092542 77 280 0.0 0.0 0.00 0.00 0.00 80 1015.1
20260905092442 77 280 0.0 0.0 0.00 0.00 0.00 80 1015.3
20260905092342 77 280 0.0 0.0 0.00 0.00 0.00 80 1015.3
20260905092239 77 280 0.0 0.0 0.00 0.00 0.00 80 1015.1
20260905092137 77 280 0.0 0.0 0.00 0.00 0.00 80 1015.1
20260905092037 77 280 0.0 0.0 0.00 0.00 0.00 80 1015.1
20260905091936 77 280 0.0 0.0 0.00 0.00 0.00 80 1015.1
20260905091834 77 280 0.0 0.0 0.00 0.00 0.00 80 1015.1
20260905091734 77 280 0.0 0.0 0.00 0.00 0.00 80 1015.1
20260905091632 77 280 0.0 0.0 0.00 0.00 0.00 80 1015.3
20260905091526 77 280 0.0 0.0 0.00 0.00 0.00 80 1015.3
20260905091424 77 280 0.0 0.0 0.00 0.00 0.00 80 1015.4
20260905091324 77 280 0.0 0.0 0.00 0.00 0.00 80 1015.3
20260905091224 77 280 0.0 0.0 0.00 0.00 0.00 80 1015.3
20260905091122 77 280 0.0 0.0 0.00 0.00 0.00 80 1015.3
20260905091022 77 280 0.0 0.0 0.00 0.00 0.00 80 1015.1
20260905090920 77 280 0.0 0.0 0.00 0.00 0.00 80 1015.3
20260905090820 77 280 0.0 0.0 0.00 0.00 0.00 80 1015.3
20260905090717 77 280 0.0 0.0 0.00 0.00 0.00 80 1015.3
20260905090616 77 280 0.0 0.0 0.00 0.00 0.00 80 1015.3
20260905090516 77 279 0.0 0.0 0.00 0.00 0.00 80 1015.1
20260905090412 77 280 0.0 0.0 0.00 0.00 0.00 80 1015.3
20260905090311 77 280 0.0 0.0 0.00 0.00 0.00 80 1015.3
20260905090212 77 280 0.0 0.0 0.00 0.00 0.00 80 1015.4
20260905090109 77 280 0.0 0.0 0.00 0.00 0.00 80 1015.4
20260905090004 77 279 0.0 0.0 0.00 0.00 0.00 80 1015.4
20260905085905 77 279 0.0 0.0 0.00 0.00 0.00 80 1015.4
20260905085805 77 279 0.0 0.0 0.00 0.00 0.00 80 1015.3
20260905085705 77 279 0.0 0.0 0.00 0.00 0.00 80 1015.3
20260905085606 77 279 0.0 0.0 0.00 0.00 0.00 80 1015.4
20260905085506 77 279 0.0 0.0 0.00 0.00 0.00 80 1015.4
20260905085405 77 279 0.0 0.0 0.00 0.00 0.00 80 1015.4
20260905085306 77 279 0.0 0.0 0.00 0.00 0.00 80 1015.4
20260905085202 77 279 0.0 0.0 0.00 0.00 0.00 80 1015.4
20260905085103 77 280 0.0 0.0 0.00 0.00 0.00 80 1015.4
20260905085002 77 280 0.0 0.0 0.00 0.00 0.00 80 1015.4
20260905084902 77 280 0.0 0.0 0.00 0.00 0.00 80 1015.5
20260905084803 77 280 0.0 0.0 0.00 0.00 0.00 80 1015.6
20260905084702 77 280 0.0 0.0 0.00 0.00 0.00 80 1015.5
20260905084601 77 280 0.0 0.0 0.00 0.00 0.00 80 1015.5
20260905084501 77 280 0.0 0.0 0.00 0.00 0.00 80 1015.6
20260905084401 77 280 0.0 0.0 0.00 0.00 0.00 80 1015.6
20260905084256 77 280 0.0 0.0 0.00 0.00 0.00 80 1015.7
20260905084158 77 280 0.0 0.0 0.00 0.00 0.00 80 1015.6
20260905084056 77 280 0.0 0.0 0.00 0.00 0.00 80 1015.7
20260905083958 77 286 0.0 0.0 0.00 0.00 0.00 80 1015.6
20260905083856 77 286 0.0 0.0 0.00 0.00 0.00 80 1015.6
20260905083756 77 286 0.0 0.0 0.00 0.00 0.00 80 1015.7
20260905083652 77 286 0.0 0.0 0.00 0.00 0.00 80 1015.7
20260905083554 77 286 0.0 0.0 0.00 0.00 0.00 80 1015.7
20260905083450 77 286 0.0 0.0 0.00 0.00 0.00 80 1015.8